| time (UTC) | temp C | wind direction | speed KPH | gust KPH | rain 1hr cm | rain 24hr cm | rain mn cm | humidity % | barometer mb |
| 20260901113033 | 21 | 175 | 0.0 | 4.8 | 0.00 | 0.00 | 0.00 | 66 | 1018.8 |
| 20260901113000 | 20 | 197 | 0.0 | 3.2 | 0.00 | 0.00 | 0.00 | 68 | 1018.4 |
| 20260901112956 | 20 | 210 | 0.0 | 1.6 | 0.00 | 0.00 | 0.00 | 68 | 1018.5 |
| 20260901112950 | 20 | 196 | 0.0 | 1.6 | 0.00 | 0.00 | 0.00 | 67 | 1018.4 |
| 20260901112946 | 21 | 192 | 0.0 | 3.2 | 0.00 | 0.00 | 0.00 | 67 | 1018.4 |
| 20260901112940 | 21 | 175 | 3.2 | 4.8 | 0.00 | 0.00 | 0.00 | 66 | 1018.5 |
| 20260901112925 | 21 | 184 | 1.6 | 4.8 | 0.00 | 0.00 | 0.00 | 66 | 1018.8 |
| 20260901112902 | 21 | 201 | 0.0 | 4.8 | 0.00 | 0.00 | 0.00 | 66 | 1018.5 |
| 20260901112844 | 21 | 176 | 1.6 | 4.8 | 0.00 | 0.00 | 0.00 | 66 | 1019.0 |
| 20260901112608 | 21 | 176 | 1.6 | 4.8 | 0.00 | 0.00 | 0.00 | 66 | 1018.7 |
| 20260901112552 | 21 | 199 | 0.0 | 4.8 | 0.00 | 0.00 | 0.00 | 66 | 1018.5 |
| 20260901112324 | 22 | 167 | 0.0 | 4.8 | 0.00 | 0.00 | 0.00 | 67 | 1018.4 |
| 20260901112310 | 22 | 84 | 3.2 | 4.8 | 0.00 | 0.00 | 0.00 | 65 | 1018.5 |
| 20260901112254 | 22 | 200 | 0.0 | 4.8 | 0.00 | 0.00 | 0.00 | 65 | 1018.2 |
| 20260901112238 | 22 | 194 | 1.6 | 4.8 | 0.00 | 0.00 | 0.00 | 65 | 1018.5 |
| 20260901112222 | 22 | 196 | 0.0 | 4.8 | 0.00 | 0.00 | 0.00 | 66 | 1018.7 |
| 20260901111955 | 22 | 104 | 1.6 | 4.8 | 0.00 | 0.00 | 0.00 | 67 | 1018.7 |
| 20260901111938 | 21 | 198 | 0.0 | 4.8 | 0.00 | 0.00 | 0.00 | 68 | 1018.7 |
| 20260901111702 | 21 | 185 | 1.6 | 4.8 | 0.00 | 0.00 | 0.00 | 68 | 1018.4 |
| 20260901111420 | 20 | 183 | 0.0 | 3.2 | 0.00 | 0.00 | 0.00 | 69 | 1018.7 |
| 20260901111405 | 21 | 198 | 0.0 | 3.2 | 0.00 | 0.00 | 0.00 | 68 | 1018.8 |
| 20260901111348 | 20 | 196 | 0.0 | 3.2 | 0.00 | 0.00 | 0.00 | 68 | 1018.8 |
| 20260901111333 | 20 | 186 | 1.6 | 3.2 | 0.00 | 0.00 | 0.00 | 68 | 1018.7 |
| 20260901111055 | 20 | 197 | 0.0 | 3.2 | 0.00 | 0.00 | 0.00 | 68 | 1018.4 |
| 20260901110827 | 20 | 198 | 0.0 | 3.2 | 0.00 | 0.00 | 0.00 | 68 | 1018.8 |
| 20260901110807 | 20 | 201 | 0.0 | 3.2 | 0.00 | 0.00 | 0.00 | 68 | 1018.7 |
| 20260901110751 | 20 | 203 | 0.0 | 3.2 | 0.00 | 0.00 | 0.00 | 68 | 1018.9 |
| 20260901110735 | 20 | 187 | 0.0 | 3.2 | 0.00 | 0.00 | 0.00 | 68 | 1018.8 |
| 20260901110713 | 20 | 198 | 0.0 | 3.2 | 0.00 | 0.00 | 0.00 | 68 | 1018.7 |
| 20260901110657 | 20 | 196 | 0.0 | 3.2 | 0.00 | 0.00 | 0.00 | 67 | 1018.5 |
| 20260901110642 | 20 | 228 | 1.6 | 3.2 | 0.00 | 0.00 | 0.00 | 67 | 1018.7 |
| 20260901110626 | 20 | 268 | 0.0 | 1.6 | 0.00 | 0.00 | 0.00 | 68 | 1018.8 |
| 20260901110611 | 20 | 199 | 0.0 | 1.6 | 0.00 | 0.00 | 0.00 | 68 | 1018.5 |
| 20260901110552 | 20 | 210 | 0.0 | 1.6 | 0.00 | 0.00 | 0.00 | 68 | 1018.5 |
| 20260901110326 | 21 | 164 | 0.0 | 1.6 | 0.00 | 0.00 | 0.00 | 68 | 1018.7 |
| 20260901110050 | 20 | 196 | 0.0 | 1.6 | 0.00 | 0.00 | 0.00 | 68 | 1018.5 |
| 20260901105812 | 20 | 196 | 0.0 | 1.6 | 0.00 | 0.00 | 0.00 | 67 | 1018.4 |
| 20260901105547 | 21 | 194 | 0.0 | 1.6 | 0.00 | 0.00 | 0.00 | 67 | 1018.5 |
| 20260901105531 | 21 | 195 | 0.0 | 1.6 | 0.00 | 0.00 | 0.00 | 67 | 1018.7 |
| 20260901105515 | 21 | 214 | 0.0 | 3.2 | 0.00 | 0.00 | 0.00 | 67 | 1018.4 |
| 20260901104805 | 21 | 116 | 0.0 | 3.2 | 0.00 | 0.00 | 0.00 | 66 | 1018.5 |
| 20260901104541 | 21 | 197 | 0.0 | 3.2 | 0.00 | 0.00 | 0.00 | 66 | 1018.4 |
| 20260901104527 | 21 | 199 | 0.0 | 3.2 | 0.00 | 0.00 | 0.00 | 66 | 1018.5 |
| 20260901104511 | 21 | 125 | 0.0 | 3.2 | 0.00 | 0.00 | 0.00 | 66 | 1018.7 |
| 20260901104239 | 21 | 194 | 1.6 | 3.2 | 0.00 | 0.00 | 0.00 | 65 | 1018.7 |
| 20260901104223 | 21 | 174 | 0.0 | 3.2 | 0.00 | 0.00 | 0.00 | 65 | 1018.7 |
| 20260901104208 | 22 | 198 | 0.0 | 3.2 | 0.00 | 0.00 | 0.00 | 65 | 1018.7 |
| 20260901104152 | 22 | 199 | 0.0 | 3.2 | 0.00 | 0.00 | 0.00 | 66 | 1018.5 |
| 20260901104137 | 22 | 183 | 0.0 | 3.2 | 0.00 | 0.00 | 0.00 | 64 | 1018.8 |
| 20260901103908 | 22 | 144 | 0.0 | 4.8 | 0.00 | 0.00 | 0.00 | 63 | 1018.5 |
| 20260901103851 | 22 | 198 | 0.0 | 4.8 | 0.00 | 0.00 | 0.00 | 62 | 1018.8 |
| 20260901103835 | 22 | 199 | 0.0 | 4.8 | 0.00 | 0.00 | 0.00 | 62 | 1018.8 |
| 20260901103819 | 22 | 200 | 0.0 | 4.8 | 0.00 | 0.00 | 0.00 | 64 | 1018.7 |
| 20260901103804 | 22 | 137 | 0.0 | 4.8 | 0.00 | 0.00 | 0.00 | 63 | 1018.5 |
| 20260901103314 | 22 | 201 | 0.0 | 4.8 | 0.00 | 0.00 | 0.00 | 64 | 1018.8 |
| 20260901103258 | 22 | 200 | 0.0 | 4.8 | 0.00 | 0.00 | 0.00 | 63 | 1018.2 |
| 20260901102718 | 22 | 208 | 0.0 | 9.7 | 0.00 | 0.00 | 0.00 | 63 | 1019.0 |
| 20260901102653 | 22 | 204 | 0.0 | 9.7 | 0.00 | 0.00 | 0.00 | 64 | 1018.8 |
| 20260901102637 | 22 | 178 | 0.0 | 9.7 | 0.00 | 0.00 | 0.00 | 65 | 1018.2 |
| 20260901102622 | 22 | 196 | 0.0 | 9.7 | 0.00 | 0.00 | 0.00 | 66 | 1018.4 |
| 20260901102605 | 22 | 206 | 1.6 | 9.7 | 0.00 | 0.00 | 0.00 | 64 | 1018.5 |
| 20260901102338 | 22 | 196 | 1.6 | 9.7 | 0.00 | 0.00 | 0.00 | 64 | 1018.4 |
| 20260901102018 | 21 | 206 | 0.0 | 9.7 | 0.00 | 0.00 | 0.00 | 64 | 1018.7 |
| 20260901102003 | 21 | 198 | 0.0 | 1.6 | 0.00 | 0.00 | 0.00 | 64 | 1018.3 |
| 20260901101947 | 21 | 188 | 0.0 | 1.6 | 0.00 | 0.00 | 0.00 | 65 | 1018.5 |
| 20260901101717 | 21 | 202 | 0.0 | 1.6 | 0.00 | 0.00 | 0.00 | 65 | 1018.4 |
| 20260901101617 | 21 | 195 | 0.0 | 1.6 | 0.00 | 0.00 | 0.00 | 64 | 1018.3 |
| 20260901101517 | 21 | 201 | 0.0 | 1.6 | 0.00 | 0.00 | 0.00 | 64 | 1018.3 |
| 20260901101417 | 21 | 205 | 0.0 | 1.6 | 0.00 | 0.00 | 0.00 | 64 | 1018.7 |
| 20260901101317 | 21 | 160 | 0.0 | 1.6 | 0.00 | 0.00 | 0.00 | 64 | 1018.7 |
| 20260901101217 | 21 | 196 | 0.0 | 1.6 | 0.00 | 0.00 | 0.00 | 65 | 1018.5 |
| 20260901101122 | 22 | 196 | 0.0 | 1.6 | 0.00 | 0.00 | 0.00 | 65 | 1018.3 |
| 20260901101019 | 21 | 197 | 0.0 | 1.6 | 0.00 | 0.00 | 0.00 | 65 | 1018.5 |
| 20260901101002 | 21 | 194 | 0.0 | 1.6 | 0.00 | 0.00 | 0.00 | 65 | 1018.3 |
| 20260901100946 | 21 | 186 | 1.6 | 1.6 | 0.00 | 0.00 | 0.00 | 65 | 1018.4 |
| 20260901100717 | 21 | 209 | 0.0 | 1.6 | 0.00 | 0.00 | 0.00 | 65 | 1018.3 |
| 20260901100617 | 21 | 200 | 0.0 | 3.2 | 0.00 | 0.00 | 0.00 | 66 | 1018.3 |
| 20260901100517 | 21 | 199 | 0.0 | 3.2 | 0.00 | 0.00 | 0.00 | 65 | 1018.5 |
| 20260901100417 | 21 | 134 | 0.0 | 3.2 | 0.00 | 0.00 | 0.00 | 67 | 1018.3 |
| 20260901100317 | 21 | 198 | 0.0 | 3.2 | 0.00 | 0.00 | 0.00 | 67 | 1018.4 |
| 20260901100218 | 21 | 176 | 0.0 | 3.2 | 0.00 | 0.00 | 0.00 | 67 | 1018.3 |
| 20260901100116 | 21 | 183 | 0.0 | 3.2 | 0.00 | 0.00 | 0.00 | 65 | 1018.5 |
| 20260901100018 | 21 | 205 | 0.0 | 3.2 | 0.00 | 0.00 | 0.00 | 66 | 1018.5 |
| 20260901095918 | 21 | 199 | 0.0 | 3.2 | 0.00 | 0.00 | 0.00 | 65 | 1018.4 |
| 20260901095817 | 22 | 199 | 0.0 | 4.8 | 0.00 | 0.00 | 0.00 | 64 | 1018.5 |
| 20260901095730 | 22 | 197 | 0.0 | 4.8 | 0.00 | 0.00 | 0.00 | 63 | 1018.5 |
| 20260901095617 | 22 | 168 | 0.0 | 4.8 | 0.00 | 0.00 | 0.00 | 63 | 1018.4 |
| 20260901095518 | 22 | 188 | 0.0 | 4.8 | 0.00 | 0.00 | 0.00 | 63 | 1018.5 |
| 20260901095418 | 22 | 198 | 0.0 | 9.7 | 0.00 | 0.00 | 0.00 | 63 | 1018.4 |
| 20260901095317 | 22 | 206 | 0.0 | 9.7 | 0.00 | 0.00 | 0.00 | 62 | 1018.5 |
| 20260901095217 | 23 | 190 | 0.0 | 11.3 | 0.00 | 0.00 | 0.00 | 62 | 1018.3 |
| 20260901095155 | 24 | 152 | 0.0 | 11.3 | 0.00 | 0.00 | 0.00 | 59 | 1018.3 |
| 20260901095151 | 23 | 207 | 0.0 | 9.7 | 0.00 | 0.00 | 0.00 | 60 | 1018.2 |
| 20260901095143 | 23 | 204 | 0.0 | 11.3 | 0.00 | 0.00 | 0.00 | 60 | 1018.1 |
| 20260901095128 | 23 | 190 | 0.0 | 11.3 | 0.00 | 0.00 | 0.00 | 60 | 1018.3 |
| 20260901095114 | 24 | 152 | 3.2 | 11.3 | 0.00 | 0.00 | 0.00 | 59 | 1018.3 |
| 20260901095058 | 24 | 202 | 0.0 | 11.3 | 0.00 | 0.00 | 0.00 | 60 | 1018.4 |
| 20260901095039 | 24 | 152 | 0.0 | 11.3 | 0.00 | 0.00 | 0.00 | 59 | 1018.3 |
| 20260901094812 | 24 | 196 | 0.0 | 11.3 | 0.00 | 0.00 | 0.00 | 60 | 1018.7 |
| 20260901094535 | 24 | 226 | 1.6 | 11.3 | 0.00 | 0.00 | 0.00 | 61 | 1018.3 |
| 20260901094520 | 24 | 230 | 0.0 | 11.3 | 0.00 | 0.00 | 0.00 | 60 | 1018.4 |
| 20260901094503 | 23 | 207 | 0.0 | 9.7 | 0.00 | 0.00 | 0.00 | 60 | 1018.2 |
| 20260901094237 | 23 | 217 | 1.6 | 9.7 | 0.00 | 0.00 | 0.00 | 59 | 1018.4 |
| 20260901093917 | 23 | 200 | 0.0 | 9.7 | 0.00 | 0.00 | 0.00 | 61 | 1018.1 |
| 20260901093818 | 23 | 101 | 0.0 | 4.8 | 0.00 | 0.00 | 0.00 | 59 | 1018.1 |
| 20260901093718 | 23 | 202 | 0.0 | 4.8 | 0.00 | 0.00 | 0.00 | 60 | 1018.7 |
| 20260901093617 | 23 | 138 | 3.2 | 4.8 | 0.00 | 0.00 | 0.00 | 60 | 1018.4 |
| 20260901093518 | 23 | 157 | 0.0 | 4.8 | 0.00 | 0.00 | 0.00 | 61 | 1018.3 |
| 20260901093419 | 23 | 207 | 0.0 | 4.8 | 0.00 | 0.00 | 0.00 | 62 | 1018.3 |
| 20260901093317 | 23 | 217 | 1.6 | 4.8 | 0.00 | 0.00 | 0.00 | 63 | 1018.5 |
| 20260901093217 | 23 | 212 | 1.6 | 4.8 | 0.00 | 0.00 | 0.00 | 61 | 1018.3 |
| 20260901093116 | 23 | 191 | 0.0 | 4.8 | 0.00 | 0.00 | 0.00 | 62 | 1018.4 |
| 20260901093055 | 23 | 178 | 0.0 | 4.8 | 0.00 | 0.00 | 0.00 | 62 | 1018.2 |
| 20260901093038 | 23 | 178 | 0.0 | 4.8 | 0.00 | 0.00 | 0.00 | 61 | 1018.3 |
| 20260901092751 | 23 | 201 | 0.0 | 4.8 | 0.00 | 0.00 | 0.00 | 58 | 1018.5 |
| 20260901092734 | 23 | 205 | 0.0 | 9.7 | 0.00 | 0.00 | 0.00 | 60 | 1018.4 |
| 20260901092719 | 23 | 194 | 0.0 | 9.7 | 0.00 | 0.00 | 0.00 | 59 | 1018.3 |
| 20260901092443 | 23 | 209 | 1.6 | 9.7 | 0.00 | 0.00 | 0.00 | 60 | 1018.2 |
| 20260901092217 | 23 | 107 | 0.0 | 9.7 | 0.00 | 0.00 | 0.00 | 61 | 1018.2 |
| 20260901092153 | 23 | 237 | 0.0 | 9.7 | 0.00 | 0.00 | 0.00 | 63 | 1018.2 |
| 20260901092138 | 23 | 239 | 1.6 | 9.7 | 0.00 | 0.00 | 0.00 | 61 | 1018.0 |
| 20260901091900 | 23 | 202 | 0.0 | 9.7 | 0.00 | 0.00 | 0.00 | 61 | 1018.4 |
| 20260901091836 | 23 | 153 | 3.2 | 9.7 | 0.00 | 0.00 | 0.00 | 61 | 1018.4 |
| 20260901091517 | 23 | 216 | 0.0 | 4.8 | 0.00 | 0.00 | 0.00 | 61 | 1018.3 |
| 20260901091417 | 23 | 198 | 0.0 | 3.2 | 0.00 | 0.00 | 0.00 | 61 | 1018.4 |
| 20260901091317 | 23 | 200 | 0.0 | 3.2 | 0.00 | 0.00 | 0.00 | 62 | 1018.3 |
| 20260901091217 | 23 | 200 | 0.0 | 3.2 | 0.00 | 0.00 | 0.00 | 63 | 1018.2 |
| 20260901091118 | 22 | 202 | 0.0 | 3.2 | 0.00 | 0.00 | 0.00 | 63 | 1018.2 |
| 20260901091021 | 21 | 135 | 0.0 | 3.2 | 0.00 | 0.00 | 0.00 | 65 | 1018.1 |
| 20260901091017 | 22 | 199 | 1.6 | 3.2 | 0.00 | 0.00 | 0.00 | 64 | 1018.1 |
| 20260901091001 | 22 | 199 | 0.0 | 3.2 | 0.00 | 0.00 | 0.00 | 64 | 1018.4 |
| 20260901090945 | 22 | 163 | 1.6 | 3.2 | 0.00 | 0.00 | 0.00 | 64 | 1018.1 |
| 20260901090926 | 21 | 135 | 0.0 | 3.2 | 0.00 | 0.00 | 0.00 | 65 | 1018.1 |
| 20260901090618 | 21 | 194 | 0.0 | 3.2 | 0.00 | 0.00 | 0.00 | 66 | 1018.2 |
| 20260901090517 | 21 | 188 | 0.0 | 3.2 | 0.00 | 0.00 | 0.00 | 68 | 1018.3 |
| 20260901090417 | 21 | 201 | 0.0 | 3.2 | 0.00 | 0.00 | 0.00 | 69 | 1018.2 |
| 20260901090317 | 21 | 116 | 1.6 | 3.2 | 0.00 | 0.00 | 0.00 | 69 | 1018.3 |
| 20260901090217 | 21 | 155 | 1.6 | 3.2 | 0.00 | 0.00 | 0.00 | 70 | 1018.2 |
| 20260901090152 | 21 | 202 | 0.0 | 3.2 | 0.00 | 0.00 | 0.00 | 68 | 1018.2 |
| 20260901090137 | 21 | 207 | 0.0 | 3.2 | 0.00 | 0.00 | 0.00 | 68 | 1018.3 |
| 20260901085818 | 21 | 201 | 0.0 | 3.2 | 0.00 | 0.00 | 0.00 | 68 | 1018.1 |
| 20260901085717 | 21 | 204 | 0.0 | 3.2 | 0.00 | 0.00 | 0.00 | 68 | 1018.4 |
| 20260901085653 | 21 | 79 | 0.0 | 3.2 | 0.00 | 0.00 | 0.00 | 69 | 1018.3 |
| 20260901085637 | 21 | 187 | 1.6 | 3.2 | 0.00 | 0.00 | 0.00 | 69 | 1018.4 |
| 20260901085317 | 21 | 230 | 0.0 | 3.2 | 0.00 | 0.00 | 0.00 | 70 | 1018.7 |
| 20260901085217 | 21 | 200 | 0.0 | 3.2 | 0.00 | 0.00 | 0.00 | 70 | 1018.3 |
| 20260901085117 | 20 | 73 | 0.0 | 3.2 | 0.00 | 0.00 | 0.00 | 70 | 1018.3 |
| 20260901085055 | 20 | 198 | 0.0 | 0.0 | 0.00 | 0.00 | 0.00 | 71 | 1018.4 |
| 20260901085038 | 20 | 197 | 0.0 | 0.0 | 0.00 | 0.00 | 0.00 | 72 | 1018.2 |
| 20260901084715 | 19 | 198 | 0.0 | 0.0 | 0.00 | 0.00 | 0.00 | 73 | 1018.5 |
| 20260901084216 | 19 | 193 | 0.0 | 4.8 | 0.00 | 0.00 | 0.00 | 72 | 1018.3 |
| 20260901084157 | 19 | 200 | 1.6 | 4.8 | 0.00 | 0.00 | 0.00 | 72 | 1018.3 |
| 20260901084116 | 21 | 196 | 0.0 | 9.7 | 0.00 | 0.00 | 0.00 | 70 | 1018.2 |
| 20260901084111 | 20 | 191 | 0.0 | 3.2 | 0.00 | 0.00 | 0.00 | 71 | 1018.2 |
| 20260901084105 | 22 | 208 | 0.0 | 9.7 | 0.00 | 0.00 | 0.00 | 65 | 1017.9 |
| 20260901084100 | 19 | 182 | 1.6 | 4.8 | 0.00 | 0.00 | 0.00 | 73 | 1018.2 |
| 20260901084044 | 19 | 165 | 0.0 | 4.8 | 0.00 | 0.00 | 0.00 | 72 | 1018.2 |
| 20260901084029 | 19 | 176 | 1.6 | 3.2 | 0.00 | 0.00 | 0.00 | 73 | 1018.2 |
| 20260901084013 | 19 | 194 | 0.0 | 3.2 | 0.00 | 0.00 | 0.00 | 72 | 1018.4 |
| 20260901083957 | 19 | 194 | 0.0 | 3.2 | 0.00 | 0.00 | 0.00 | 72 | 1018.4 |
| 20260901083949 | 19 | 194 | 0.0 | 3.2 | 0.00 | 0.00 | 0.00 | 72 | 1018.3 |
| 20260901083934 | 19 | 182 | 0.0 | 3.2 | 0.00 | 0.00 | 0.00 | 72 | 1018.3 |
| 20260901083918 | 19 | 160 | 0.0 | 3.2 | 0.00 | 0.00 | 0.00 | 72 | 1018.2 |
| 20260901083641 | 20 | 92 | 1.6 | 3.2 | 0.00 | 0.00 | 0.00 | 71 | 1018.2 |
| 20260901083627 | 20 | 206 | 0.0 | 1.6 | 0.00 | 0.00 | 0.00 | 71 | 1018.2 |
| 20260901083359 | 20 | 194 | 0.0 | 1.6 | 0.00 | 0.00 | 0.00 | 71 | 1018.1 |
| 20260901083342 | 20 | 202 | 0.0 | 1.6 | 0.00 | 0.00 | 0.00 | 71 | 1018.2 |
| 20260901083107 | 20 | 189 | 0.0 | 3.2 | 0.00 | 0.00 | 0.00 | 71 | 1018.2 |
| 20260901082838 | 20 | 194 | 0.0 | 3.2 | 0.00 | 0.00 | 0.00 | 71 | 1018.0 |
| 20260901082603 | 21 | 200 | 0.0 | 4.8 | 0.00 | 0.00 | 0.00 | 70 | 1018.1 |
| 20260901082547 | 21 | 194 | 0.0 | 4.8 | 0.00 | 0.00 | 0.00 | 69 | 1018.2 |
| 20260901082531 | 21 | 198 | 0.0 | 4.8 | 0.00 | 0.00 | 0.00 | 69 | 1018.1 |
| 20260901082517 | 21 | 199 | 0.0 | 4.8 | 0.00 | 0.00 | 0.00 | 70 | 1018.1 |
| 20260901082249 | 21 | 200 | 0.0 | 4.8 | 0.00 | 0.00 | 0.00 | 69 | 1018.0 |
| 20260901082012 | 21 | 202 | 0.0 | 4.8 | 0.00 | 0.00 | 0.00 | 68 | 1018.1 |
| 20260901081957 | 21 | 177 | 0.0 | 4.8 | 0.00 | 0.00 | 0.00 | 68 | 1018.2 |
| 20260901081732 | 21 | 35 | 1.6 | 4.8 | 0.00 | 0.00 | 0.00 | 68 | 1018.2 |
| 20260901081724 | 22 | 202 | 1.6 | 4.8 | 0.00 | 0.00 | 0.00 | 68 | 1018.1 |
| 20260901081709 | 22 | 198 | 0.0 | 3.2 | 0.00 | 0.00 | 0.00 | 67 | 1018.1 |
| 20260901081653 | 22 | 199 | 0.0 | 4.8 | 0.00 | 0.00 | 0.00 | 66 | 1017.8 |
| 20260901081638 | 22 | 191 | 0.0 | 4.8 | 0.00 | 0.00 | 0.00 | 66 | 1018.1 |
| 20260901081621 | 22 | 227 | 0.0 | 4.8 | 0.00 | 0.00 | 0.00 | 64 | 1017.9 |
| 20260901081354 | 22 | 218 | 0.0 | 9.7 | 0.00 | 0.00 | 0.00 | 65 | 1018.1 |
| 20260901081337 | 22 | 205 | 1.6 | 9.7 | 0.00 | 0.00 | 0.00 | 66 | 1018.0 |
| 20260901081321 | 22 | 198 | 0.0 | 9.7 | 0.00 | 0.00 | 0.00 | 67 | 1017.8 |
| 20260901081305 | 22 | 196 | 0.0 | 9.7 | 0.00 | 0.00 | 0.00 | 68 | 1017.9 |
| 20260901081249 | 21 | 199 | 0.0 | 9.7 | 0.00 | 0.00 | 0.00 | 69 | 1018.2 |
| 20260901080456 | 21 | 198 | 0.0 | 9.7 | 0.00 | 0.00 | 0.00 | 69 | 1017.8 |
| 20260901080356 | 21 | 193 | 0.0 | 9.7 | 0.00 | 0.00 | 0.00 | 69 | 1017.9 |
| 20260901080338 | 22 | 217 | 6.4 | 9.7 | 0.00 | 0.00 | 0.00 | 68 | 1017.7 |
| 20260901080323 | 22 | 191 | 1.6 | 6.4 | 0.00 | 0.00 | 0.00 | 68 | 1017.7 |
| 20260901080316 | 22 | 191 | 0.0 | 6.4 | 0.00 | 0.00 | 0.00 | 68 | 1017.8 |
| 20260901075956 | 22 | 239 | 3.2 | 6.4 | 0.00 | 0.00 | 0.00 | 69 | 1017.8 |
| 20260901075857 | 22 | 197 | 0.0 | 3.2 | 0.00 | 0.00 | 0.00 | 70 | 1017.9 |
| 20260901075756 | 22 | 200 | 0.0 | 3.2 | 0.00 | 0.00 | 0.00 | 69 | 1017.8 |
| 20260901075717 | 22 | 204 | 0.0 | 3.2 | 0.00 | 0.00 | 0.00 | 69 | 1017.8 |
| 20260901075657 | 22 | 196 | 0.0 | 3.2 | 0.00 | 0.00 | 0.00 | 69 | 1017.9 |
| 20260901075556 | 22 | 202 | 0.0 | 3.2 | 0.00 | 0.00 | 0.00 | 68 | 1017.8 |
| 20260901075457 | 22 | 199 | 0.0 | 3.2 | 0.00 | 0.00 | 0.00 | 69 | 1018.0 |
| 20260901075357 | 22 | 189 | 0.0 | 3.2 | 0.00 | 0.00 | 0.00 | 69 | 1017.9 |
| 20260901075256 | 22 | 201 | 0.0 | 3.2 | 0.00 | 0.00 | 0.00 | 70 | 1017.8 |
| 20260901075240 | 22 | 198 | 0.0 | 3.2 | 0.00 | 0.00 | 0.00 | 69 | 1017.8 |
| 20260901075232 | 22 | 206 | 1.6 | 3.2 | 0.00 | 0.00 | 0.00 | 69 | 1017.9 |
| 20260901075215 | 22 | 212 | 0.0 | 3.2 | 0.00 | 0.00 | 0.00 | 68 | 1017.8 |
| 20260901075200 | 22 | 202 | 0.0 | 3.2 | 0.00 | 0.00 | 0.00 | 69 | 1017.8 |
| 20260901074925 | 21 | 192 | 0.0 | 3.2 | 0.00 | 0.00 | 0.00 | 70 | 1018.0 |
| 20260901074908 | 21 | 197 | 0.0 | 3.2 | 0.00 | 0.00 | 0.00 | 70 | 1018.0 |
| 20260901074556 | 20 | 198 | 0.0 | 6.4 | 0.00 | 0.00 | 0.00 | 71 | 1017.9 |
| 20260901074458 | 20 | 188 | 0.0 | 6.4 | 0.00 | 0.00 | 0.00 | 72 | 1018.0 |
| 20260901074356 | 20 | 192 | 0.0 | 6.4 | 0.00 | 0.00 | 0.00 | 73 | 1017.9 |
| 20260901074256 | 20 | 188 | 0.0 | 6.4 | 0.00 | 0.00 | 0.00 | 73 | 1017.7 |
| 20260901074217 | 20 | 147 | 0.0 | 6.4 | 0.00 | 0.00 | 0.00 | 73 | 1017.7 |
| 20260901074156 | 20 | 191 | 0.0 | 6.4 | 0.00 | 0.00 | 0.00 | 73 | 1018.0 |
| 20260901074057 | 20 | 192 | 1.6 | 6.4 | 0.00 | 0.00 | 0.00 | 73 | 1017.9 |
| 20260901073957 | 21 | 77 | 1.6 | 6.4 | 0.00 | 0.00 | 0.00 | 71 | 1017.7 |
| 20260901073939 | 22 | 203 | 0.0 | 3.2 | 0.00 | 0.00 | 0.00 | 68 | 1017.5 |
| 20260901073933 | 22 | 212 | 0.0 | 4.8 | 0.00 | 0.00 | 0.00 | 68 | 1017.5 |
| 20260901073925 | 21 | 106 | 1.6 | 6.4 | 0.00 | 0.00 | 0.00 | 71 | 1017.9 |
| 20260901073910 | 21 | 195 | 0.0 | 6.4 | 0.00 | 0.00 | 0.00 | 70 | 1017.8 |
| 20260901073852 | 21 | 189 | 1.6 | 6.4 | 0.00 | 0.00 | 0.00 | 70 | 1017.8 |
| 20260901073845 | 21 | 187 | 0.0 | 3.2 | 0.00 | 0.00 | 0.00 | 69 | 1018.1 |
| 20260901073829 | 21 | 192 | 0.0 | 3.2 | 0.00 | 0.00 | 0.00 | 69 | 1018.0 |
| 20260901073814 | 21 | 161 | 1.6 | 3.2 | 0.00 | 0.00 | 0.00 | 70 | 1017.7 |
| 20260901073758 | 21 | 200 | 0.0 | 3.2 | 0.00 | 0.00 | 0.00 | 70 | 1017.7 |
| 20260901073523 | 21 | 212 | 0.0 | 3.2 | 0.00 | 0.00 | 0.00 | 69 | 1017.8 |
| 20260901073515 | 21 | 216 | 0.0 | 3.2 | 0.00 | 0.00 | 0.00 | 69 | 1017.7 |
| 20260901073459 | 21 | 199 | 0.0 | 1.6 | 0.00 | 0.00 | 0.00 | 70 | 1017.6 |
| 20260901073442 | 21 | 198 | 0.0 | 1.6 | 0.00 | 0.00 | 0.00 | 70 | 1017.6 |
| 20260901073426 | 22 | 164 | 0.0 | 1.6 | 0.00 | 0.00 | 0.00 | 69 | 1017.6 |
| 20260901073411 | 22 | 199 | 0.0 | 3.2 | 0.00 | 0.00 | 0.00 | 69 | 1017.5 |
| 20260901073140 | 22 | 198 | 0.0 | 3.2 | 0.00 | 0.00 | 0.00 | 69 | 1017.8 |
| 20260901073124 | 22 | 203 | 0.0 | 4.8 | 0.00 | 0.00 | 0.00 | 68 | 1017.6 |
| 20260901072627 | 22 | 191 | 0.0 | 4.8 | 0.00 | 0.00 | 0.00 | 68 | 1017.5 |
| 20260901072057 | 22 | 159 | 0.0 | 4.8 | 0.00 | 0.00 | 0.00 | 68 | 1017.5 |
| 20260901072029 | 22 | 191 | 0.0 | 4.8 | 0.00 | 0.00 | 0.00 | 69 | 1017.2 |
| 20260901072014 | 22 | 181 | 0.0 | 4.8 | 0.00 | 0.00 | 0.00 | 69 | 1017.5 |
| 20260901071958 | 22 | 245 | 0.0 | 4.8 | 0.00 | 0.00 | 0.00 | 68 | 1017.5 |
| 20260901071941 | 22 | 198 | 0.0 | 4.8 | 0.00 | 0.00 | 0.00 | 69 | 1017.5 |
| 20260901071712 | 22 | 222 | 0.0 | 3.2 | 0.00 | 0.00 | 0.00 | 70 | 1017.5 |
| 20260901071655 | 22 | 137 | 0.0 | 3.2 | 0.00 | 0.00 | 0.00 | 69 | 1017.5 |
| 20260901071418 | 22 | 188 | 0.0 | 3.2 | 0.00 | 0.00 | 0.00 | 69 | 1017.5 |
| 20260901071403 | 22 | 198 | 0.0 | 3.2 | 0.00 | 0.00 | 0.00 | 69 | 1017.5 |
| 20260901071355 | 22 | 198 | 0.0 | 3.2 | 0.00 | 0.00 | 0.00 | 69 | 1017.4 |
| 20260901071119 | 22 | 193 | 0.0 | 3.2 | 0.00 | 0.00 | 0.00 | 69 | 1017.4 |
| 20260901070842 | 21 | 197 | 0.0 | 3.2 | 0.00 | 0.00 | 0.00 | 70 | 1017.2 |
| 20260901070825 | 21 | 209 | 0.0 | 3.2 | 0.00 | 0.00 | 0.00 | 70 | 1017.2 |
| 20260901070817 | 21 | 189 | 0.0 | 3.2 | 0.00 | 0.00 | 0.00 | 70 | 1017.7 |
| 20260901070458 | 21 | 178 | 0.0 | 3.2 | 0.00 | 0.00 | 0.00 | 72 | 1017.2 |
| 20260901070356 | 21 | 47 | 0.0 | 3.2 | 0.00 | 0.00 | 0.00 | 72 | 1017.4 |
| 20260901070257 | 21 | 196 | 0.0 | 3.2 | 0.00 | 0.00 | 0.00 | 72 | 1017.5 |
| 20260901070217 | 21 | 197 | 0.0 | 3.2 | 0.00 | 0.00 | 0.00 | 73 | 1017.5 |
| 20260901070156 | 21 | 201 | 0.0 | 3.2 | 0.00 | 0.00 | 0.00 | 73 | 1017.4 |
| 20260901070134 | 21 | 147 | 1.6 | 3.2 | 0.00 | 0.00 | 0.00 | 72 | 1017.4 |
| 20260901070118 | 21 | 203 | 0.0 | 3.2 | 0.00 | 0.00 | 0.00 | 71 | 1017.3 |
| 20260901065757 | 21 | 189 | 1.6 | 4.8 | 0.00 | 0.00 | 0.00 | 71 | 1017.3 |
| 20260901065717 | 21 | 205 | 1.6 | 4.8 | 0.00 | 0.00 | 0.00 | 71 | 1017.3 |
| 20260901065656 | 21 | 193 | 1.6 | 4.8 | 0.00 | 0.00 | 0.00 | 72 | 1017.5 |
| 20260901065641 | 20 | 245 | 1.6 | 11.3 | 0.00 | 0.00 | 0.00 | 73 | 1017.4 |
| 20260901065632 | 21 | 201 | 0.0 | 11.3 | 0.00 | 0.00 | 0.00 | 72 | 1017.5 |
| 20260901065616 | 21 | 177 | 1.6 | 11.3 | 0.00 | 0.00 | 0.00 | 72 | 1017.2 |
| 20260901065559 | 20 | 201 | 0.0 | 11.3 | 0.00 | 0.00 | 0.00 | 72 | 1017.3 |
| 20260901065544 | 20 | 162 | 0.0 | 11.3 | 0.00 | 0.00 | 0.00 | 73 | 1017.4 |
| 20260901065317 | 20 | 183 | 0.0 | 11.3 | 0.00 | 0.00 | 0.00 | 73 | 1017.3 |
| 20260901064956 | 20 | 237 | 1.6 | 11.3 | 0.00 | 0.00 | 0.00 | 73 | 1017.3 |
| 20260901064857 | 20 | 186 | 1.6 | 11.3 | 0.00 | 0.00 | 0.00 | 73 | 1017.4 |
| 20260901064757 | 20 | 174 | 1.6 | 11.3 | 0.00 | 0.00 | 0.00 | 73 | 1017.5 |
| 20260901064717 | 20 | 201 | 1.6 | 11.3 | 0.00 | 0.00 | 0.00 | 73 | 1017.5 |
| 20260901064658 | 20 | 180 | 3.2 | 11.3 | 0.00 | 0.00 | 0.00 | 73 | 1017.4 |
| 20260901064630 | 20 | 186 | 1.6 | 3.2 | 0.00 | 0.00 | 0.00 | 73 | 1017.3 |
| 20260901064615 | 20 | 192 | 0.0 | 3.2 | 0.00 | 0.00 | 0.00 | 73 | 1017.3 |
| 20260901064257 | 20 | 152 | 0.0 | 1.6 | 0.00 | 0.00 | 0.00 | 72 | 1017.4 |
| 20260901064216 | 20 | 206 | 0.0 | 1.6 | 0.00 | 0.00 | 0.00 | 73 | 1017.4 |
| 20260901064156 | 20 | 194 | 0.0 | 3.2 | 0.00 | 0.00 | 0.00 | 73 | 1017.3 |
| 20260901064056 | 20 | 162 | 0.0 | 3.2 | 0.00 | 0.00 | 0.00 | 73 | 1017.3 |
| 20260901064015 | 20 | 154 | 1.6 | 3.2 | 0.00 | 0.00 | 0.00 | 75 | 1017.2 |
| 20260901064008 | 20 | 199 | 0.0 | 3.2 | 0.00 | 0.00 | 0.00 | 74 | 1017.1 |
| 20260901063953 | 20 | 193 | 0.0 | 3.2 | 0.00 | 0.00 | 0.00 | 74 | 1017.3 |
| 20260901063937 | 20 | 190 | 0.0 | 3.2 | 0.00 | 0.00 | 0.00 | 74 | 1017.2 |
| 20260901063657 | 20 | 80 | 0.0 | 3.2 | 0.00 | 0.00 | 0.00 | 75 | 1017.6 |
| 20260901063556 | 20 | 112 | 0.0 | 3.2 | 0.00 | 0.00 | 0.00 | 75 | 1017.3 |
| 20260901063456 | 20 | 163 | 0.0 | 6.4 | 0.00 | 0.00 | 0.00 | 75 | 1017.3 |
| 20260901063356 | 20 | 194 | 0.0 | 6.4 | 0.00 | 0.00 | 0.00 | 76 | 1017.2 |
| 20260901063256 | 20 | 172 | 0.0 | 6.4 | 0.00 | 0.00 | 0.00 | 75 | 1017.3 |
| 20260901063217 | 20 | 199 | 1.6 | 6.4 | 0.00 | 0.00 | 0.00 | 76 | 1017.3 |
| 20260901063157 | 19 | 224 | 1.6 | 6.4 | 0.00 | 0.00 | 0.00 | 76 | 1017.1 |
| 20260901063055 | 19 | 188 | 0.0 | 6.4 | 0.00 | 0.00 | 0.00 | 76 | 1017.1 |
| 20260901063015 | 19 | 202 | 0.0 | 6.4 | 0.00 | 0.00 | 0.00 | 75 | 1017.2 |
| 20260901063008 | 19 | 149 | 0.0 | 6.4 | 0.00 | 0.00 | 0.00 | 76 | 1017.1 |
| 20260901062952 | 19 | 194 | 0.0 | 6.4 | 0.00 | 0.00 | 0.00 | 75 | 1017.1 |
| 20260901062937 | 19 | 192 | 0.0 | 6.4 | 0.00 | 0.00 | 0.00 | 76 | 1017.2 |
| 20260901062656 | 19 | 194 | 0.0 | 6.4 | 0.00 | 0.00 | 0.00 | 75 | 1017.0 |
| 20260901062631 | 20 | 139 | 0.0 | 6.4 | 0.00 | 0.00 | 0.00 | 75 | 1017.4 |
| 20260901062615 | 20 | 92 | 3.2 | 4.8 | 0.00 | 0.00 | 0.00 | 73 | 1017.3 |
| 20260901062256 | 20 | 155 | 0.0 | 3.2 | 0.00 | 0.00 | 0.00 | 74 | 1017.1 |
| 20260901062240 | 20 | 79 | 1.6 | 3.2 | 0.00 | 0.00 | 0.00 | 74 | 1017.1 |
| 20260901062232 | 20 | 186 | 0.0 | 3.2 | 0.00 | 0.00 | 0.00 | 74 | 1017.2 |
| 20260901062216 | 20 | 189 | 0.0 | 3.2 | 0.00 | 0.00 | 0.00 | 75 | 1017.1 |
| 20260901061856 | 20 | 195 | 0.0 | 3.2 | 0.00 | 0.00 | 0.00 | 75 | 1017.1 |
| 20260901061756 | 20 | 194 | 0.0 | 1.6 | 0.00 | 0.00 | 0.00 | 75 | 1017.0 |
| 20260901061716 | 20 | 182 | 0.0 | 1.6 | 0.00 | 0.00 | 0.00 | 75 | 1017.0 |
| 20260901061710 | 20 | 184 | 0.0 | 1.6 | 0.00 | 0.00 | 0.00 | 77 | 1017.1 |
| 20260901061704 | 20 | 192 | 0.0 | 1.6 | 0.00 | 0.00 | 0.00 | 75 | 1017.0 |
| 20260901061649 | 20 | 179 | 0.0 | 1.6 | 0.00 | 0.00 | 0.00 | 75 | 1017.0 |
| 20260901061633 | 20 | 187 | 0.0 | 1.6 | 0.00 | 0.00 | 0.00 | 75 | 1017.1 |
| 20260901061617 | 20 | 190 | 0.0 | 1.6 | 0.00 | 0.00 | 0.00 | 75 | 1017.2 |
| 20260901061601 | 20 | 155 | 0.0 | 1.6 | 0.00 | 0.00 | 0.00 | 76 | 1017.0 |
| 20260901061547 | 20 | 276 | 0.0 | 1.6 | 0.00 | 0.00 | 0.00 | 76 | 1017.0 |
| 20260901061539 | 20 | 193 | 0.0 | 1.6 | 0.00 | 0.00 | 0.00 | 76 | 1017.0 |
| 20260901061523 | 20 | 181 | 0.0 | 1.6 | 0.00 | 0.00 | 0.00 | 76 | 1017.1 |
| 20260901061248 | 20 | 190 | 0.0 | 1.6 | 0.00 | 0.00 | 0.00 | 76 | 1017.2 |
| 20260901061232 | 20 | 194 | 0.0 | 1.6 | 0.00 | 0.00 | 0.00 | 76 | 1017.1 |
| 20260901061215 | 20 | 199 | 0.0 | 1.6 | 0.00 | 0.00 | 0.00 | 77 | 1017.1 |
| 20260901060946 | 19 | 192 | 0.0 | 1.6 | 0.00 | 0.00 | 0.00 | 77 | 1017.0 |
| 20260901060710 | 19 | 151 | 0.0 | 1.6 | 0.00 | 0.00 | 0.00 | 77 | 1017.0 |
| 20260901060157 | 20 | 185 | 0.0 | 1.6 | 0.00 | 0.00 | 0.00 | 77 | 1016.9 |
| 20260901060057 | 20 | 189 | 0.0 | 1.6 | 0.00 | 0.00 | 0.00 | 76 | 1016.9 |
| 20260901055956 | 19 | 192 | 0.0 | 1.6 | 0.00 | 0.00 | 0.00 | 77 | 1016.8 |
| 20260901055856 | 19 | 191 | 0.0 | 1.6 | 0.00 | 0.00 | 0.00 | 78 | 1016.9 |
| 20260901055821 | 19 | 169 | 0.0 | 3.2 | 0.00 | 0.00 | 0.00 | 79 | 1016.9 |
| 20260901055811 | 19 | 135 | 0.0 | 1.6 | 0.00 | 0.00 | 0.00 | 77 | 1016.9 |
| 20260901055754 | 19 | 189 | 0.0 | 1.6 | 0.00 | 0.00 | 0.00 | 77 | 1016.9 |
| 20260901055746 | 19 | 196 | 0.0 | 1.6 | 0.00 | 0.00 | 0.00 | 77 | 1016.9 |
| 20260901055731 | 19 | 187 | 0.0 | 1.6 | 0.00 | 0.00 | 0.00 | 78 | 1016.6 |
| 20260901055506 | 19 | 122 | 0.0 | 3.2 | 0.00 | 0.00 | 0.00 | 78 | 1016.8 |
| 20260901055451 | 19 | 198 | 0.0 | 3.2 | 0.00 | 0.00 | 0.00 | 78 | 1016.9 |
| 20260901055435 | 19 | 197 | 0.0 | 3.2 | 0.00 | 0.00 | 0.00 | 79 | 1016.9 |
| 20260901055156 | 19 | 192 | 0.0 | 3.2 | 0.00 | 0.00 | 0.00 | 79 | 1016.7 |
| 20260901055105 | 16 | 203 | 0.0 | 1.6 | 0.00 | 0.00 | 0.00 | 94 | 1016.8 |
| 20260901055059 | 19 | 194 | 0.0 | 3.2 | 0.00 | 0.00 | 0.00 | 80 | 1016.6 |
| 20260901055043 | 18 | 206 | 0.0 | 3.2 | 0.00 | 0.00 | 0.00 | 80 | 1016.6 |
| 20260901055027 | 18 | 191 | 0.0 | 3.2 | 0.00 | 0.00 | 0.00 | 80 | 1016.7 |
| 20260901055011 | 18 | 195 | 0.0 | 3.2 | 0.00 | 0.00 | 0.00 | 81 | 1016.8 |
| 20260901054955 | 18 | 196 | 0.0 | 3.2 | 0.00 | 0.00 | 0.00 | 81 | 1016.8 |
| 20260901054947 | 18 | 195 | 0.0 | 3.2 | 0.00 | 0.00 | 0.00 | 81 | 1016.8 |
| 20260901054932 | 18 | 181 | 0.0 | 3.2 | 0.00 | 0.00 | 0.00 | 82 | 1016.8 |
| 20260901054916 | 18 | 195 | 0.0 | 0.0 | 0.00 | 0.00 | 0.00 | 84 | 1016.9 |
| 20260901054641 | 17 | 281 | 0.0 | 1.6 | 0.00 | 0.00 | 0.00 | 86 | 1016.8 |
| 20260901054627 | 17 | 195 | 0.0 | 1.6 | 0.00 | 0.00 | 0.00 | 86 | 1016.8 |
| 20260901054359 | 17 | 199 | 0.0 | 1.6 | 0.00 | 0.00 | 0.00 | 88 | 1016.8 |
| 20260901054332 | 16 | 191 | 0.0 | 1.6 | 0.00 | 0.00 | 0.00 | 90 | 1016.8 |
| 20260901054300 | 16 | 196 | 0.0 | 1.6 | 0.00 | 0.00 | 0.00 | 91 | 1016.6 |
| 20260901054252 | 16 | 196 | 0.0 | 1.6 | 0.00 | 0.00 | 0.00 | 91 | 1016.6 |
| 20260901054236 | 16 | 197 | 0.0 | 1.6 | 0.00 | 0.00 | 0.00 | 92 | 1016.8 |
| 20260901054001 | 16 | 202 | 0.0 | 1.6 | 0.00 | 0.00 | 0.00 | 93 | 1016.7 |
| 20260901053945 | 16 | 200 | 0.0 | 1.6 | 0.00 | 0.00 | 0.00 | 94 | 1016.8 |
| 20260901053719 | 16 | 199 | 0.0 | 1.6 | 0.00 | 0.00 | 0.00 | 94 | 1016.5 |
| 20260901052717 | 15 | 195 | 0.0 | 0.0 | 0.00 | 0.00 | 0.00 | 96 | 1016.7 |
| 20260901052656 | 15 | 194 | 0.0 | 0.0 | 0.00 | 0.00 | 0.00 | 96 | 1016.4 |
| 20260901052638 | 15 | 194 | 0.0 | 0.0 | 0.00 | 0.00 | 0.00 | 96 | 1016.4 |
| 20260901052621 | 15 | 194 | 0.0 | 0.0 | 0.00 | 0.00 | 0.00 | 97 | 1016.6 |
| 20260901052606 | 15 | 208 | 0.0 | 0.0 | 0.00 | 0.00 | 0.00 | 97 | 1016.5 |
| 20260901052325 | 15 | 196 | 0.0 | 0.0 | 0.00 | 0.00 | 0.00 | 97 | 1016.4 |
| 20260901052317 | 15 | 196 | 0.0 | 0.0 | 0.00 | 0.00 | 0.00 | 97 | 1016.5 |
| 20260901052015 | 15 | 200 | 0.0 | 0.0 | 0.00 | 0.00 | 0.00 | 98 | 1016.3 |
| 20260901052009 | 15 | 195 | 0.0 | 0.0 | 0.00 | 0.00 | 0.00 | 98 | 1016.5 |
| 20260901051952 | 15 | 198 | 0.0 | 0.0 | 0.00 | 0.00 | 0.00 | 98 | 1016.7 |
| 20260901051936 | 15 | 199 | 0.0 | 0.0 | 0.00 | 0.00 | 0.00 | 98 | 1016.3 |
| 20260901051656 | 15 | 201 | 0.0 | 0.0 | 0.00 | 0.00 | 0.00 | 98 | 1016.2 |
| 20260901051557 | 15 | 196 | 0.0 | 0.0 | 0.00 | 0.00 | 0.00 | 98 | 1016.5 |
| 20260901051455 | 15 | 196 | 0.0 | 0.0 | 0.00 | 0.00 | 0.00 | 98 | 1016.3 |
| 20260901051356 | 15 | 196 | 0.0 | 0.0 | 0.00 | 0.00 | 0.00 | 98 | 1016.6 |
| 20260901051336 | 14 | 196 | 0.0 | 0.0 | 0.00 | 0.00 | 0.00 | 99 | 1016.1 |
| 20260901051328 | 15 | 196 | 0.0 | 0.0 | 0.00 | 0.00 | 0.00 | 98 | 1016.4 |
| 20260901051313 | 15 | 196 | 0.0 | 0.0 | 0.00 | 0.00 | 0.00 | 98 | 1016.4 |
| 20260901051305 | 15 | 196 | 0.0 | 0.0 | 0.00 | 0.00 | 0.00 | 98 | 1016.4 |
| 20260901051249 | 15 | 196 | 0.0 | 0.0 | 0.00 | 0.00 | 0.00 | 98 | 1016.3 |
| 20260901051023 | 15 | 196 | 0.0 | 0.0 | 0.00 | 0.00 | 0.00 | 99 | 1016.3 |
| 20260901051007 | 14 | 196 | 0.0 | 0.0 | 0.00 | 0.00 | 0.00 | 99 | 1016.3 |
| 20260901050952 | 14 | 196 | 0.0 | 0.0 | 0.00 | 0.00 | 0.00 | 99 | 1016.2 |
| 20260901050936 | 14 | 196 | 0.0 | 0.0 | 0.00 | 0.00 | 0.00 | 99 | 1016.2 |
| 20260901050928 | 14 | 196 | 0.0 | 0.0 | 0.00 | 0.00 | 0.00 | 99 | 1016.1 |
| 20260901050651 | 14 | 201 | 0.0 | 0.0 | 0.00 | 0.00 | 0.00 | 99 | 1016.3 |
| 20260901050636 | 14 | 201 | 0.0 | 0.0 | 0.00 | 0.00 | 0.00 | 99 | 1016.3 |
| 20260901050620 | 14 | 196 | 0.0 | 0.0 | 0.00 | 0.00 | 0.00 | 99 | 1016.1 |
| 20260901050353 | 14 | 198 | 0.0 | 0.0 | 0.00 | 0.00 | 0.00 | 99 | 1016.1 |
| 20260901050117 | 14 | 198 | 0.0 | 0.0 | 0.00 | 0.00 | 0.00 | 99 | 1016.2 |
| 20260901050029 | 14 | 196 | 0.0 | 0.0 | 0.00 | 0.00 | 0.00 | 99 | 1015.9 |
| 20260901045458 | 14 | 196 | 0.0 | 0.0 | 0.00 | 0.00 | 0.00 | 99 | 1016.2 |
| 20260901045356 | 13 | 194 | 0.0 | 0.0 | 0.00 | 0.00 | 0.00 | 99 | 1016.1 |
| 20260901045258 | 13 | 196 | 0.0 | 0.0 | 0.00 | 0.00 | 0.00 | 99 | 1016.0 |
| 20260901045241 | 13 | 196 | 0.0 | 0.0 | 0.00 | 0.00 | 0.00 | 99 | 1016.0 |
| 20260901045233 | 13 | 196 | 0.0 | 0.0 | 0.00 | 0.00 | 0.00 | 99 | 1016.1 |
| 20260901045217 | 13 | 196 | 0.0 | 0.0 | 0.00 | 0.00 | 0.00 | 99 | 1016.2 |
| 20260901044858 | 13 | 196 | 0.0 | 0.0 | 0.00 | 0.00 | 0.00 | 99 | 1016.3 |
| 20260901044842 | 13 | 196 | 0.0 | 0.0 | 0.00 | 0.00 | 0.00 | 99 | 1015.9 |
| 20260901044825 | 13 | 196 | 0.0 | 0.0 | 0.00 | 0.00 | 0.00 | 99 | 1015.9 |
| 20260901044816 | 13 | 196 | 0.0 | 0.0 | 0.00 | 0.00 | 0.00 | 99 | 1016.0 |
| 20260901044456 | 13 | 196 | 0.0 | 0.0 | 0.00 | 0.00 | 0.00 | 99 | 1016.0 |
| 20260901044356 | 13 | 196 | 0.0 | 0.0 | 0.00 | 0.00 | 0.00 | 99 | 1016.0 |
| 20260901044315 | 14 | 196 | 0.0 | 0.0 | 0.00 | 0.00 | 0.00 | 99 | 1016.0 |
| 20260901044253 | 14 | 196 | 0.0 | 0.0 | 0.00 | 0.00 | 0.00 | 99 | 1016.0 |
| 20260901044246 | 14 | 196 | 0.0 | 0.0 | 0.00 | 0.00 | 0.00 | 99 | 1016.0 |
| 20260901044229 | 14 | 196 | 0.0 | 0.0 | 0.00 | 0.00 | 0.00 | 99 | 1015.8 |
| 20260901043953 | 14 | 196 | 0.0 | 0.0 | 0.00 | 0.00 | 0.00 | 100 | 1015.9 |
| 20260901043938 | 14 | 196 | 0.0 | 0.0 | 0.00 | 0.00 | 0.00 | 100 | 1016.0 |
| 20260901043655 | 14 | 196 | 0.0 | 0.0 | 0.00 | 0.00 | 0.00 | 99 | 1016.0 |
| 20260901043557 | 13 | 196 | 0.0 | 0.0 | 0.00 | 0.00 | 0.00 | 100 | 1016.0 |
| 20260901043457 | 13 | 196 | 0.0 | 0.0 | 0.00 | 0.00 | 0.00 | 100 | 1016.0 |
| 20260901043356 | 13 | 196 | 0.0 | 0.0 | 0.00 | 0.00 | 0.00 | 100 | 1015.8 |
| 20260901043345 | 13 | 197 | 0.0 | 0.0 | 0.00 | 0.00 | 0.00 | 99 | 1015.7 |
| 20260901043341 | 13 | 197 | 0.0 | 0.0 | 0.00 | 0.00 | 0.00 | 99 | 1015.9 |
| 20260901043318 | 13 | 196 | 0.0 | 0.0 | 0.00 | 0.00 | 0.00 | 100 | 1015.8 |
| 20260901043310 | 13 | 196 | 0.0 | 0.0 | 0.00 | 0.00 | 0.00 | 100 | 1015.9 |
| 20260901043253 | 13 | 196 | 0.0 | 0.0 | 0.00 | 0.00 | 0.00 | 100 | 1015.9 |
| 20260901043020 | 13 | 197 | 0.0 | 0.0 | 0.00 | 0.00 | 0.00 | 100 | 1015.9 |
| 20260901043004 | 13 | 197 | 0.0 | 0.0 | 0.00 | 0.00 | 0.00 | 100 | 1015.9 |
| 20260901042735 | 13 | 197 | 0.0 | 0.0 | 0.00 | 0.00 | 0.00 | 100 | 1015.9 |
| 20260901042719 | 13 | 197 | 0.0 | 0.0 | 0.00 | 0.00 | 0.00 | 99 | 1015.8 |
| 20260901042455 | 13 | 197 | 0.0 | 0.0 | 0.00 | 0.00 | 0.00 | 99 | 1015.8 |
| 20260901042444 | 13 | 197 | 0.0 | 0.0 | 0.00 | 0.00 | 0.00 | 99 | 1015.9 |
| 20260901042433 | 13 | 197 | 0.0 | 0.0 | 0.00 | 0.00 | 0.00 | 99 | 1015.8 |
| 20260901042403 | 13 | 197 | 0.0 | 0.0 | 0.00 | 0.00 | 0.00 | 99 | 1015.9 |
| 20260901042355 | 13 | 197 | 0.0 | 0.0 | 0.00 | 0.00 | 0.00 | 99 | 1015.8 |
| 20260901042340 | 13 | 197 | 0.0 | 0.0 | 0.00 | 0.00 | 0.00 | 99 | 1016.0 |
| 20260901042103 | 13 | 197 | 0.0 | 0.0 | 0.00 | 0.00 | 0.00 | 99 | 1015.7 |
| 20260901041844 | 13 | 197 | 0.0 | 0.0 | 0.00 | 0.00 | 0.00 | 99 | 1015.7 |
| 20260901041840 | 13 | 197 | 0.0 | 0.0 | 0.00 | 0.00 | 0.00 | 99 | 1015.7 |
| 20260901041815 | 13 | 197 | 0.0 | 0.0 | 0.00 | 0.00 | 0.00 | 99 | 1015.9 |
| 20260901041807 | 13 | 197 | 0.0 | 0.0 | 0.00 | 0.00 | 0.00 | 99 | 1015.9 |
| 20260901041752 | 13 | 197 | 0.0 | 0.0 | 0.00 | 0.00 | 0.00 | 99 | 1015.7 |
| 20260901041735 | 13 | 197 | 0.0 | 0.0 | 0.00 | 0.00 | 0.00 | 99 | 1015.8 |
| 20260901041719 | 13 | 197 | 0.0 | 0.0 | 0.00 | 0.00 | 0.00 | 99 | 1015.9 |
| 20260901041703 | 13 | 197 | 0.0 | 0.0 | 0.00 | 0.00 | 0.00 | 99 | 1015.9 |
| 20260901041436 | 13 | 197 | 0.0 | 0.0 | 0.00 | 0.00 | 0.00 | 99 | 1015.7 |
| 20260901041420 | 13 | 197 | 0.0 | 0.0 | 0.00 | 0.00 | 0.00 | 99 | 1015.9 |
| 20260901041405 | 13 | 197 | 0.0 | 0.0 | 0.00 | 0.00 | 0.00 | 99 | 1015.6 |
| 20260901041349 | 13 | 197 | 0.0 | 0.0 | 0.00 | 0.00 | 0.00 | 99 | 1015.6 |
| 20260901041333 | 13 | 197 | 0.0 | 0.0 | 0.00 | 0.00 | 0.00 | 99 | 1015.5 |
| 20260901041316 | 13 | 197 | 0.0 | 0.0 | 0.00 | 0.00 | 0.00 | 99 | 1015.5 |
| 20260901041308 | 13 | 197 | 0.0 | 0.0 | 0.00 | 0.00 | 0.00 | 99 | 1015.5 |
| 20260901040812 | 13 | 197 | 0.0 | 0.0 | 0.00 | 0.00 | 0.00 | 99 | 1015.9 |
| 20260901040743 | 13 | 197 | 0.0 | 0.0 | 0.00 | 0.00 | 0.00 | 99 | 1015.7 |
| 20260901040735 | 13 | 197 | 0.0 | 0.0 | 0.00 | 0.00 | 0.00 | 99 | 1015.7 |
| 20260901040501 | 13 | 197 | 0.0 | 0.0 | 0.00 | 0.00 | 0.00 | 99 | 1015.6 |
| 20260901040445 | 13 | 197 | 0.0 | 0.0 | 0.00 | 0.00 | 0.00 | 99 | 1015.7 |
| 20260901040413 | 13 | 197 | 0.0 | 0.0 | 0.00 | 0.00 | 0.00 | 99 | 1015.7 |
| 20260901040144 | 13 | 197 | 0.0 | 0.0 | 0.00 | 0.00 | 0.00 | 99 | 1016.0 |
| 20260901040128 | 13 | 197 | 0.0 | 0.0 | 0.00 | 0.00 | 0.00 | 99 | 1015.7 |
| 20260901035422 | 13 | 197 | 0.0 | 0.0 | 0.00 | 0.00 | 0.00 | 99 | 1015.6 |
| 20260901035406 | 13 | 197 | 0.0 | 0.0 | 0.00 | 0.00 | 0.00 | 99 | 1015.6 |
| 20260901035350 | 13 | 197 | 0.0 | 0.0 | 0.00 | 0.00 | 0.00 | 99 | 1015.6 |
| 20260901035334 | 13 | 196 | 0.0 | 0.0 | 0.00 | 0.00 | 0.00 | 99 | 1015.8 |
| 20260901035318 | 13 | 197 | 0.0 | 0.0 | 0.00 | 0.00 | 0.00 | 99 | 1015.7 |
| 20260901035050 | 13 | 197 | 0.0 | 0.0 | 0.00 | 0.00 | 0.00 | 99 | 1015.8 |
| 20260901035034 | 13 | 197 | 0.0 | 0.0 | 0.00 | 0.00 | 0.00 | 99 | 1015.5 |
| 20260901035020 | 13 | 197 | 0.0 | 0.0 | 0.00 | 0.00 | 0.00 | 99 | 1015.5 |
| 20260901035003 | 13 | 196 | 0.0 | 0.0 | 0.00 | 0.00 | 0.00 | 99 | 1015.7 |
| 20260901034946 | 13 | 196 | 0.0 | 0.0 | 0.00 | 0.00 | 0.00 | 99 | 1015.7 |
| 20260901034453 | 13 | 197 | 0.0 | 0.0 | 0.00 | 0.00 | 0.00 | 99 | 1015.7 |
| 20260901034217 | 13 | 197 | 0.0 | 0.0 | 0.00 | 0.00 | 0.00 | 99 | 1015.4 |
| 20260901033732 | 13 | 197 | 0.0 | 0.0 | 0.00 | 0.00 | 0.00 | 99 | 1015.3 |
| 20260901033724 | 13 | 197 | 0.0 | 0.0 | 0.00 | 0.00 | 0.00 | 99 | 1015.5 |
| 20260901033709 | 13 | 197 | 0.0 | 0.0 | 0.00 | 0.00 | 0.00 | 99 | 1015.6 |
| 20260901033653 | 13 | 197 | 0.0 | 0.0 | 0.00 | 0.00 | 0.00 | 99 | 1015.7 |
| 20260901033637 | 13 | 197 | 0.0 | 0.0 | 0.00 | 0.00 | 0.00 | 99 | 1015.5 |
| 20260901033621 | 13 | 197 | 0.0 | 0.0 | 0.00 | 0.00 | 0.00 | 99 | 1015.6 |
| 20260901033052 | 13 | 197 | 0.0 | 0.0 | 0.00 | 0.00 | 0.00 | 98 | 1015.2 |
| 20260901032951 | 13 | 197 | 0.0 | 0.0 | 0.00 | 0.00 | 0.00 | 99 | 1015.4 |
| 20260901032928 | 13 | 197 | 0.0 | 0.0 | 0.00 | 0.00 | 0.00 | 98 | 1015.4 |
| 20260901032856 | 13 | 197 | 0.0 | 0.0 | 0.00 | 0.00 | 0.00 | 98 | 1015.4 |
| 20260901032848 | 13 | 197 | 0.0 | 0.0 | 0.00 | 0.00 | 0.00 | 98 | 1015.4 |
| 20260901032612 | 13 | 196 | 0.0 | 0.0 | 0.00 | 0.00 | 0.00 | 98 | 1015.3 |
| 20260901032252 | 13 | 197 | 0.0 | 0.0 | 0.00 | 0.00 | 0.00 | 98 | 1015.3 |
| 20260901032213 | 13 | 197 | 0.0 | 0.0 | 0.00 | 0.00 | 0.00 | 98 | 1015.3 |
| 20260901032152 | 13 | 197 | 0.0 | 0.0 | 0.00 | 0.00 | 0.00 | 98 | 1015.3 |
| 20260901032052 | 13 | 197 | 0.0 | 0.0 | 0.00 | 0.00 | 0.00 | 98 | 1015.5 |
| 20260901031953 | 13 | 197 | 0.0 | 0.0 | 0.00 | 0.00 | 0.00 | 98 | 1015.3 |
| 20260901031852 | 13 | 197 | 0.0 | 0.0 | 0.00 | 0.00 | 0.00 | 98 | 1015.4 |
| 20260901031753 | 13 | 197 | 0.0 | 0.0 | 0.00 | 0.00 | 0.00 | 98 | 1015.4 |
| 20260901031712 | 13 | 197 | 0.0 | 0.0 | 0.00 | 0.00 | 0.00 | 98 | 1015.4 |
| 20260901031652 | 13 | 197 | 0.0 | 0.0 | 0.00 | 0.00 | 0.00 | 98 | 1015.4 |
| 20260901031632 | 13 | 197 | 0.0 | 0.0 | 0.00 | 0.00 | 0.00 | 98 | 1015.4 |
| 20260901031617 | 13 | 197 | 0.0 | 0.0 | 0.00 | 0.00 | 0.00 | 98 | 1015.3 |
| 20260901031601 | 14 | 197 | 0.0 | 0.0 | 0.00 | 0.00 | 0.00 | 98 | 1015.4 |
| 20260901031326 | 14 | 197 | 0.0 | 0.0 | 0.00 | 0.00 | 0.00 | 98 | 1015.6 |
| 20260901031305 | 14 | 197 | 0.0 | 0.0 | 0.00 | 0.00 | 0.00 | 98 | 1015.4 |
| 20260901031248 | 14 | 197 | 0.0 | 0.0 | 0.00 | 0.00 | 0.00 | 98 | 1015.2 |
| 20260901031013 | 14 | 197 | 0.0 | 0.0 | 0.00 | 0.00 | 0.00 | 98 | 1015.4 |
| 20260901030712 | 14 | 197 | 0.0 | 0.0 | 0.00 | 0.00 | 0.00 | 98 | 1015.3 |
| 20260901030652 | 14 | 197 | 0.0 | 0.0 | 0.00 | 0.00 | 0.00 | 98 | 1015.4 |
| 20260901030552 | 14 | 197 | 0.0 | 0.0 | 0.00 | 0.00 | 0.00 | 98 | 1015.5 |
| 20260901030452 | 14 | 197 | 0.0 | 0.0 | 0.00 | 0.00 | 0.00 | 98 | 1015.4 |
| 20260901030353 | 14 | 197 | 0.0 | 0.0 | 0.00 | 0.00 | 0.00 | 98 | 1015.2 |
| 20260901030253 | 14 | 197 | 0.0 | 0.0 | 0.00 | 0.00 | 0.00 | 98 | 1015.3 |
| 20260901030212 | 14 | 197 | 0.0 | 0.0 | 0.00 | 0.00 | 0.00 | 98 | 1015.3 |
| 20260901030152 | 14 | 197 | 0.0 | 0.0 | 0.00 | 0.00 | 0.00 | 98 | 1015.2 |
| 20260901030052 | 14 | 197 | 0.0 | 0.0 | 0.00 | 0.00 | 0.00 | 98 | 1015.1 |
| 20260901025955 | 14 | 197 | 0.0 | 0.0 | 0.00 | 0.00 | 0.00 | 98 | 1015.5 |
| 20260901025939 | 14 | 197 | 0.0 | 0.0 | 0.00 | 0.00 | 0.00 | 98 | 1015.4 |
| 20260901025906 | 14 | 197 | 0.0 | 0.0 | 0.00 | 0.00 | 0.00 | 98 | 1015.5 |
| 20260901025552 | 14 | 197 | 0.0 | 0.0 | 0.00 | 0.00 | 0.00 | 98 | 1015.4 |
| 20260901025452 | 14 | 197 | 0.0 | 0.0 | 0.00 | 0.00 | 0.00 | 98 | 1015.4 |
| 20260901025352 | 14 | 197 | 0.0 | 0.0 | 0.00 | 0.00 | 0.00 | 98 | 1015.3 |
| 20260901025306 | 15 | 197 | 0.0 | 0.0 | 0.00 | 0.00 | 0.00 | 97 | 1015.3 |
| 20260901025258 | 14 | 197 | 0.0 | 0.0 | 0.00 | 0.00 | 0.00 | 97 | 1015.4 |
| 20260901025244 | 14 | 197 | 0.0 | 0.0 | 0.00 | 0.00 | 0.00 | 98 | 1015.4 |
| 20260901025237 | 14 | 197 | 0.0 | 0.0 | 0.00 | 0.00 | 0.00 | 98 | 1015.3 |
| 20260901025222 | 14 | 197 | 0.0 | 0.0 | 0.00 | 0.00 | 0.00 | 97 | 1015.3 |
| 20260901025208 | 14 | 197 | 0.0 | 0.0 | 0.00 | 0.00 | 0.00 | 97 | 1015.6 |
| 20260901025154 | 14 | 197 | 0.0 | 0.0 | 0.00 | 0.00 | 0.00 | 97 | 1015.4 |
| 20260901025121 | 14 | 197 | 0.0 | 0.0 | 0.00 | 0.00 | 0.00 | 97 | 1015.4 |
| 20260901024853 | 14 | 197 | 0.0 | 0.0 | 0.00 | 0.00 | 0.00 | 97 | 1015.6 |
| 20260901024838 | 14 | 197 | 0.0 | 0.0 | 0.00 | 0.00 | 0.00 | 97 | 1015.3 |
| 20260901024822 | 14 | 197 | 0.0 | 0.0 | 0.00 | 0.00 | 0.00 | 97 | 1015.2 |
| 20260901024807 | 14 | 197 | 0.0 | 0.0 | 0.00 | 0.00 | 0.00 | 97 | 1015.4 |
| 20260901024752 | 15 | 197 | 0.0 | 0.0 | 0.00 | 0.00 | 0.00 | 97 | 1015.4 |
| 20260901024303 | 15 | 197 | 0.0 | 0.0 | 0.00 | 0.00 | 0.00 | 97 | 1015.1 |
| 20260901024247 | 15 | 197 | 0.0 | 0.0 | 0.00 | 0.00 | 0.00 | 97 | 1015.4 |
| 20260901024215 | 15 | 197 | 0.0 | 0.0 | 0.00 | 0.00 | 0.00 | 97 | 1015.3 |
| 20260901024208 | 15 | 197 | 0.0 | 0.0 | 0.00 | 0.00 | 0.00 | 97 | 1015.1 |
| 20260901024152 | 15 | 197 | 0.0 | 0.0 | 0.00 | 0.00 | 0.00 | 97 | 1015.4 |
| 20260901023657 | 15 | 196 | 0.0 | 0.0 | 0.00 | 0.00 | 0.00 | 97 | 1015.3 |
| 20260901023432 | 15 | 197 | 0.0 | 0.0 | 0.00 | 0.00 | 0.00 | 97 | 1015.4 |
| 20260901022852 | 15 | 197 | 0.0 | 0.0 | 0.00 | 0.00 | 0.00 | 97 | 1015.3 |
| 20260901022828 | 15 | 197 | 0.0 | 0.0 | 0.00 | 0.00 | 0.00 | 97 | 1015.3 |
| 20260901022812 | 15 | 197 | 0.0 | 0.0 | 0.00 | 0.00 | 0.00 | 97 | 1015.3 |
| 20260901022804 | 15 | 197 | 0.0 | 0.0 | 0.00 | 0.00 | 0.00 | 97 | 1015.5 |
| 20260901022748 | 15 | 197 | 0.0 | 0.0 | 0.00 | 0.00 | 0.00 | 97 | 1015.3 |
| 20260901022513 | 15 | 197 | 0.0 | 0.0 | 0.00 | 0.00 | 0.00 | 97 | 1015.5 |
| 20260901022443 | 15 | 197 | 0.0 | 0.0 | 0.00 | 0.00 | 0.00 | 97 | 1015.3 |
| 20260901022434 | 15 | 197 | 0.0 | 0.0 | 0.00 | 0.00 | 0.00 | 97 | 1015.5 |
| 20260901021929 | 15 | 196 | 0.0 | 0.0 | 0.00 | 0.00 | 0.00 | 96 | 1015.2 |
| 20260901021856 | 15 | 196 | 0.0 | 0.0 | 0.00 | 0.00 | 0.00 | 96 | 1015.2 |
| 20260901021849 | 15 | 196 | 0.0 | 0.0 | 0.00 | 0.00 | 0.00 | 96 | 1015.5 |
| 20260901021613 | 15 | 197 | 0.0 | 0.0 | 0.00 | 0.00 | 0.00 | 96 | 1015.3 |
| 20260901021235 | 15 | 197 | 0.0 | 0.0 | 0.00 | 0.00 | 0.00 | 96 | 1015.4 |
| 20260901021227 | 15 | 197 | 0.0 | 0.0 | 0.00 | 0.00 | 0.00 | 96 | 1015.4 |
| 20260901021212 | 15 | 197 | 0.0 | 0.0 | 0.00 | 0.00 | 0.00 | 96 | 1015.2 |
| 20260901020852 | 15 | 197 | 0.0 | 0.0 | 0.00 | 0.00 | 0.00 | 96 | 1015.2 |
| 20260901020752 | 15 | 196 | 0.0 | 0.0 | 0.00 | 0.00 | 0.00 | 95 | 1015.4 |
| 20260901020725 | 15 | 197 | 0.0 | 0.0 | 0.00 | 0.00 | 0.00 | 95 | 1015.4 |
| 20260901020653 | 15 | 197 | 0.0 | 0.0 | 0.00 | 0.00 | 0.00 | 95 | 1015.4 |
| 20260901020552 | 15 | 197 | 0.0 | 0.0 | 0.00 | 0.00 | 0.00 | 95 | 1015.5 |
| 20260901020452 | 15 | 197 | 0.0 | 0.0 | 0.00 | 0.00 | 0.00 | 95 | 1015.4 |
| 20260901020352 | 15 | 197 | 0.0 | 0.0 | 0.00 | 0.00 | 0.00 | 95 | 1015.4 |
| 20260901020252 | 15 | 197 | 0.0 | 0.0 | 0.00 | 0.00 | 0.00 | 95 | 1015.6 |
| 20260901020212 | 15 | 197 | 0.0 | 0.0 | 0.00 | 0.00 | 0.00 | 95 | 1015.6 |
| 20260901020153 | 15 | 197 | 0.0 | 0.0 | 0.00 | 0.00 | 0.00 | 95 | 1015.4 |
| 20260901020127 | 15 | 197 | 0.0 | 0.0 | 0.00 | 0.00 | 0.00 | 95 | 1015.5 |
| 20260901020112 | 15 | 197 | 0.0 | 0.0 | 0.00 | 0.00 | 0.00 | 95 | 1015.5 |
| 20260901015801 | 16 | 197 | 0.0 | 0.0 | 0.00 | 0.00 | 0.00 | 94 | 1015.5 |
| 20260901015756 | 15 | 197 | 0.0 | 0.0 | 0.00 | 0.00 | 0.00 | 95 | 1015.5 |
| 20260901015740 | 15 | 196 | 0.0 | 0.0 | 0.00 | 0.00 | 0.00 | 95 | 1015.5 |
| 20260901015732 | 15 | 197 | 0.0 | 0.0 | 0.00 | 0.00 | 0.00 | 95 | 1015.4 |
| 20260901015715 | 15 | 197 | 0.0 | 0.0 | 0.00 | 0.00 | 0.00 | 94 | 1015.6 |
| 20260901015659 | 16 | 197 | 0.0 | 0.0 | 0.00 | 0.00 | 0.00 | 94 | 1015.4 |
| 20260901015644 | 16 | 197 | 0.0 | 0.0 | 0.00 | 0.00 | 0.00 | 94 | 1015.3 |
| 20260901015613 | 16 | 197 | 0.0 | 0.0 | 0.00 | 0.00 | 0.00 | 94 | 1015.2 |
| 20260901015605 | 16 | 197 | 0.0 | 0.0 | 0.00 | 0.00 | 0.00 | 94 | 1015.5 |
| 20260901015330 | 16 | 197 | 0.0 | 0.0 | 0.00 | 0.00 | 0.00 | 94 | 1015.3 |
| 20260901015313 | 16 | 197 | 0.0 | 0.0 | 0.00 | 0.00 | 0.00 | 94 | 1015.2 |
| 20260901015257 | 16 | 197 | 0.0 | 0.0 | 0.00 | 0.00 | 0.00 | 94 | 1015.5 |
| 20260901015028 | 16 | 197 | 0.0 | 0.0 | 0.00 | 0.00 | 0.00 | 94 | 1015.1 |
| 20260901014752 | 16 | 197 | 0.0 | 0.0 | 0.00 | 0.00 | 0.00 | 94 | 1015.3 |
| 20260901014504 | 16 | 197 | 0.0 | 0.0 | 0.00 | 0.00 | 0.00 | 94 | 1015.3 |
| 20260901014456 | 16 | 197 | 0.0 | 0.0 | 0.00 | 0.00 | 0.00 | 94 | 1015.3 |
| 20260901014221 | 16 | 197 | 0.0 | 0.0 | 0.00 | 0.00 | 0.00 | 94 | 1015.1 |
| 20260901014205 | 16 | 197 | 0.0 | 0.0 | 0.00 | 0.00 | 0.00 | 94 | 1015.1 |
| 20260901014132 | 16 | 197 | 0.0 | 0.0 | 0.00 | 0.00 | 0.00 | 94 | 1015.2 |
| 20260901013904 | 16 | 197 | 0.0 | 0.0 | 0.00 | 0.00 | 0.00 | 94 | 1014.9 |
| 20260901013629 | 16 | 197 | 0.0 | 0.0 | 0.00 | 0.00 | 0.00 | 93 | 1015.4 |
| 20260901013559 | 16 | 197 | 0.0 | 0.0 | 0.00 | 0.00 | 0.00 | 93 | 1015.3 |
| 20260901013331 | 16 | 197 | 0.0 | 0.0 | 0.00 | 0.00 | 0.00 | 93 | 1015.2 |
| 20260901013057 | 16 | 197 | 0.0 | 0.0 | 0.00 | 0.00 | 0.00 | 93 | 1015.2 |
| 20260901013025 | 16 | 197 | 0.0 | 0.0 | 0.00 | 0.00 | 0.00 | 93 | 1015.1 |
| 20260901012452 | 16 | 197 | 0.0 | 0.0 | 0.00 | 0.00 | 0.00 | 93 | 1015.2 |
| 20260901012353 | 16 | 197 | 0.0 | 0.0 | 0.00 | 0.00 | 0.00 | 93 | 1015.1 |
| 20260901012251 | 16 | 197 | 0.0 | 0.0 | 0.00 | 0.00 | 0.00 | 93 | 1015.4 |
| 20260901012213 | 16 | 197 | 0.0 | 0.0 | 0.00 | 0.00 | 0.00 | 93 | 1015.4 |
| 20260901012152 | 16 | 197 | 0.0 | 0.0 | 0.00 | 0.00 | 0.00 | 93 | 1015.4 |
| 20260901012052 | 16 | 196 | 0.0 | 0.0 | 0.00 | 0.00 | 0.00 | 93 | 1015.2 |
| 20260901011953 | 16 | 197 | 0.0 | 0.0 | 0.00 | 0.00 | 0.00 | 93 | 1015.5 |
| 20260901011852 | 16 | 197 | 0.0 | 0.0 | 0.00 | 0.00 | 0.00 | 93 | 1015.5 |
| 20260901011752 | 16 | 197 | 0.0 | 0.0 | 0.00 | 0.00 | 0.00 | 93 | 1015.4 |
| 20260901011712 | 16 | 197 | 0.0 | 0.0 | 0.00 | 0.00 | 0.00 | 93 | 1015.4 |
| 20260901011651 | 16 | 196 | 0.0 | 0.0 | 0.00 | 0.00 | 0.00 | 93 | 1015.3 |
| 20260901011552 | 16 | 199 | 0.0 | 0.0 | 0.00 | 0.00 | 0.00 | 93 | 1015.5 |
| 20260901011452 | 17 | 199 | 0.0 | 0.0 | 0.00 | 0.00 | 0.00 | 93 | 1015.5 |
| 20260901011353 | 17 | 199 | 0.0 | 0.0 | 0.00 | 0.00 | 0.00 | 93 | 1015.3 |
| 20260901011251 | 17 | 199 | 0.0 | 0.0 | 0.00 | 0.00 | 0.00 | 93 | 1015.5 |
| 20260901011212 | 17 | 199 | 0.0 | 0.0 | 0.00 | 0.00 | 0.00 | 93 | 1015.5 |
| 20260901011152 | 17 | 199 | 0.0 | 0.0 | 0.00 | 0.00 | 0.00 | 93 | 1015.6 |
| 20260901011053 | 17 | 199 | 0.0 | 0.0 | 0.00 | 0.00 | 0.00 | 93 | 1015.5 |
| 20260901010954 | 17 | 199 | 0.0 | 0.0 | 0.00 | 0.00 | 0.00 | 93 | 1015.5 |
| 20260901010853 | 17 | 199 | 0.0 | 0.0 | 0.00 | 0.00 | 0.00 | 93 | 1015.6 |
| 20260901010712 | 17 | 199 | 0.0 | 0.0 | 0.00 | 0.00 | 0.00 | 93 | 1015.5 |
| 20260901010640 | 17 | 199 | 0.0 | 0.0 | 0.00 | 0.00 | 0.00 | 93 | 1015.2 |
| 20260901010540 | 17 | 199 | 0.0 | 0.0 | 0.00 | 0.00 | 0.00 | 93 | 1015.6 |
| 20260901010503 | 17 | 199 | 0.0 | 0.0 | 0.00 | 0.00 | 0.00 | 93 | 1015.4 |
| 20260901010448 | 17 | 199 | 0.0 | 0.0 | 0.00 | 0.00 | 0.00 | 93 | 1015.5 |
| 20260901010215 | 17 | 199 | 0.0 | 0.0 | 0.00 | 0.00 | 0.00 | 94 | 1015.4 |
| 20260901010205 | 17 | 199 | 0.0 | 0.0 | 0.00 | 0.00 | 0.00 | 94 | 1015.6 |
| 20260901010149 | 17 | 200 | 0.0 | 0.0 | 0.00 | 0.00 | 0.00 | 94 | 1015.4 |
| 20260901005828 | 17 | 193 | 0.0 | 0.0 | 0.00 | 0.00 | 0.00 | 94 | 1015.3 |
| 20260901005712 | 17 | 195 | 0.0 | 0.0 | 0.00 | 0.00 | 0.00 | 94 | 1015.0 |
| 20260901005628 | 17 | 201 | 0.0 | 0.0 | 0.00 | 0.00 | 0.00 | 94 | 1015.4 |
| 20260901005528 | 17 | 201 | 0.0 | 0.0 | 0.00 | 0.00 | 0.00 | 94 | 1015.5 |
| 20260901005428 | 17 | 203 | 0.0 | 0.0 | 0.00 | 0.00 | 0.00 | 94 | 1015.3 |
| 20260901005329 | 17 | 200 | 0.0 | 0.0 | 0.00 | 0.00 | 0.00 | 95 | 1015.4 |
| 20260901005216 | 17 | 198 | 0.0 | 0.0 | 0.00 | 0.00 | 0.00 | 95 | 1015.4 |
| 20260901005117 | 16 | 198 | 0.0 | 0.0 | 0.00 | 0.00 | 0.00 | 95 | 1015.3 |
| 20260901005016 | 16 | 198 | 0.0 | 0.0 | 0.00 | 0.00 | 0.00 | 95 | 1015.2 |
| 20260901004957 | 16 | 198 | 0.0 | 0.0 | 0.00 | 0.00 | 0.00 | 95 | 1015.5 |
| 20260901004941 | 17 | 198 | 0.0 | 0.0 | 0.00 | 0.00 | 0.00 | 95 | 1015.3 |
| 20260901004714 | 17 | 198 | 0.0 | 0.0 | 0.00 | 0.00 | 0.00 | 95 | 1015.3 |
| 20260901004405 | 17 | 197 | 0.0 | 0.0 | 0.00 | 0.00 | 0.00 | 95 | 1015.4 |
| 20260901004305 | 17 | 197 | 0.0 | 0.0 | 0.00 | 0.00 | 0.00 | 95 | 1015.4 |
| 20260901004242 | 17 | 198 | 0.0 | 0.0 | 0.00 | 0.00 | 0.00 | 95 | 1015.3 |
| 20260901004226 | 17 | 199 | 0.0 | 0.0 | 0.00 | 0.00 | 0.00 | 95 | 1015.5 |
| 20260901004210 | 17 | 199 | 0.0 | 0.0 | 0.00 | 0.00 | 0.00 | 95 | 1015.2 |
| 20260901004153 | 16 | 199 | 0.0 | 0.0 | 0.00 | 0.00 | 0.00 | 95 | 1015.2 |
| 20260901003927 | 16 | 199 | 0.0 | 0.0 | 0.00 | 0.00 | 0.00 | 95 | 1015.2 |
| 20260901003605 | 16 | 199 | 0.0 | 0.0 | 0.00 | 0.00 | 0.00 | 95 | 1015.4 |
| 20260901003505 | 16 | 199 | 0.0 | 0.0 | 0.00 | 0.00 | 0.00 | 95 | 1015.4 |
| 20260901003406 | 16 | 199 | 0.0 | 0.0 | 0.00 | 0.00 | 0.00 | 96 | 1015.6 |
| 20260901003305 | 16 | 199 | 0.0 | 0.0 | 0.00 | 0.00 | 0.00 | 96 | 1015.5 |
| 20260901003229 | 16 | 199 | 0.0 | 0.0 | 0.00 | 0.00 | 0.00 | 96 | 1015.5 |
| 20260901003213 | 16 | 199 | 0.0 | 0.0 | 0.00 | 0.00 | 0.00 | 96 | 1015.5 |
| 20260901002854 | 16 | 199 | 0.0 | 0.0 | 0.00 | 0.00 | 0.00 | 96 | 1015.3 |
| 20260901002754 | 16 | 199 | 0.0 | 0.0 | 0.00 | 0.00 | 0.00 | 96 | 1015.5 |
| 20260901002654 | 16 | 199 | 0.0 | 0.0 | 0.00 | 0.00 | 0.00 | 96 | 1015.5 |
| 20260901002633 | 16 | 199 | 0.0 | 0.0 | 0.00 | 0.00 | 0.00 | 96 | 1015.3 |
| 20260901002625 | 16 | 199 | 0.0 | 0.0 | 0.00 | 0.00 | 0.00 | 96 | 1015.4 |
| 20260901002610 | 16 | 199 | 0.0 | 0.0 | 0.00 | 0.00 | 0.00 | 96 | 1015.5 |
| 20260901002555 | 16 | 199 | 0.0 | 0.0 | 0.00 | 0.00 | 0.00 | 96 | 1015.4 |
| 20260901002328 | 16 | 201 | 0.0 | 0.0 | 0.00 | 0.00 | 0.00 | 96 | 1015.5 |
| 20260901002311 | 16 | 201 | 0.0 | 0.0 | 0.00 | 0.00 | 0.00 | 96 | 1015.6 |
| 20260901002254 | 16 | 201 | 0.0 | 0.0 | 0.00 | 0.00 | 0.00 | 96 | 1015.3 |
| 20260901002019 | 16 | 202 | 0.0 | 0.0 | 0.00 | 0.00 | 0.00 | 96 | 1015.4 |
| 20260901002002 | 16 | 199 | 0.0 | 0.0 | 0.00 | 0.00 | 0.00 | 96 | 1015.3 |
| 20260901001654 | 16 | 200 | 0.0 | 0.0 | 0.00 | 0.00 | 0.00 | 96 | 1015.7 |
| 20260901001553 | 16 | 200 | 0.0 | 0.0 | 0.00 | 0.00 | 0.00 | 96 | 1015.4 |
| 20260901001535 | 16 | 201 | 0.0 | 0.0 | 0.00 | 0.00 | 0.00 | 96 | 1015.4 |
| 20260901001519 | 16 | 201 | 0.0 | 0.0 | 0.00 | 0.00 | 0.00 | 96 | 1015.5 |
| 20260901001253 | 16 | 201 | 0.0 | 0.0 | 0.00 | 0.00 | 0.00 | 96 | 1015.5 |
| 20260901001236 | 16 | 198 | 0.0 | 0.0 | 0.00 | 0.00 | 0.00 | 98 | 1015.7 |
| 20260901001225 | 16 | 202 | 0.0 | 0.0 | 0.00 | 0.00 | 0.00 | 97 | 1015.3 |
| 20260901001209 | 16 | 200 | 0.0 | 0.0 | 0.00 | 0.00 | 0.00 | 97 | 1015.4 |
| 20260901001152 | 16 | 201 | 0.0 | 0.0 | 0.00 | 0.00 | 0.00 | 97 | 1015.3 |
| 20260901001135 | 16 | 201 | 0.0 | 0.0 | 0.00 | 0.00 | 0.00 | 97 | 1015.5 |
| 20260901000908 | 16 | 201 | 0.0 | 0.0 | 0.00 | 0.00 | 0.00 | 97 | 1015.1 |
| 20260901000851 | 16 | 201 | 0.0 | 0.0 | 0.00 | 0.00 | 0.00 | 97 | 1015.6 |
| 20260901000625 | 16 | 214 | 0.0 | 1.6 | 0.00 | 0.00 | 0.00 | 97 | 1015.7 |
| 20260901000610 | 16 | 198 | 0.0 | 1.6 | 0.00 | 0.00 | 0.00 | 97 | 1015.5 |
| 20260901000554 | 16 | 273 | 0.0 | 1.6 | 0.00 | 0.00 | 0.00 | 97 | 1015.3 |
| 20260901000328 | 16 | 199 | 0.0 | 1.6 | 0.00 | 0.00 | 0.00 | 97 | 1015.5 |
| 20260901000314 | 16 | 199 | 0.0 | 1.6 | 0.00 | 0.00 | 0.00 | 97 | 1015.4 |
| 20260901000256 | 16 | 200 | 0.0 | 1.6 | 0.00 | 0.00 | 0.00 | 97 | 1015.6 |
| 20260901000021 | 16 | 202 | 0.0 | 1.6 | 0.00 | 0.00 | 0.00 | 98 | 1015.6 |
| 20260831235959 | 16 | 204 | 0.0 | 1.6 | 0.00 | 0.00 | 0.00 | 98 | 1015.6 |
| 20260831235941 | 16 | 207 | 0.0 | 1.6 | 0.00 | 0.00 | 0.00 | 98 | 1015.6 |
| 20260831235925 | 16 | 199 | 0.0 | 1.6 | 0.00 | 0.00 | 0.00 | 98 | 1015.7 |
| 20260831235909 | 16 | 200 | 0.0 | 1.6 | 0.00 | 0.00 | 0.00 | 98 | 1015.6 |
| 20260831235852 | 16 | 197 | 0.0 | 1.6 | 0.00 | 0.00 | 0.00 | 98 | 1015.6 |
| 20260831235830 | 16 | 203 | 0.0 | 1.6 | 0.00 | 0.00 | 0.00 | 98 | 1015.8 |
| 20260831235814 | 16 | 200 | 0.0 | 0.0 | 0.00 | 0.00 | 0.00 | 98 | 1015.5 |
| 20260831235317 | 16 | 199 | 0.0 | 0.0 | 0.00 | 0.00 | 0.00 | 98 | 1015.6 |
| 20260831235255 | 16 | 196 | 0.0 | 0.0 | 0.00 | 0.00 | 0.00 | 98 | 1015.6 |
| 20260831235017 | 16 | 198 | 0.0 | 0.0 | 0.00 | 0.00 | 0.00 | 98 | 1015.6 |
| 20260831235003 | 16 | 196 | 0.0 | 0.0 | 0.00 | 0.00 | 0.00 | 98 | 1015.6 |
| 20260831234947 | 16 | 196 | 0.0 | 0.0 | 0.00 | 0.00 | 0.00 | 98 | 1015.5 |
| 20260831234924 | 16 | 196 | 0.0 | 0.0 | 0.00 | 0.00 | 0.00 | 98 | 1015.8 |
| 20260831234909 | 16 | 198 | 0.0 | 0.0 | 0.00 | 0.00 | 0.00 | 98 | 1015.6 |
| 20260831234854 | 16 | 197 | 0.0 | 0.0 | 0.00 | 0.00 | 0.00 | 98 | 1015.6 |
| 20260831234359 | 16 | 198 | 0.0 | 0.0 | 0.00 | 0.00 | 0.00 | 98 | 1015.7 |
| 20260831233649 | 15 | 198 | 0.0 | 0.0 | 0.00 | 0.00 | 0.00 | 98 | 1015.7 |
| 20260831233633 | 15 | 198 | 0.0 | 0.0 | 0.00 | 0.00 | 0.00 | 98 | 1015.8 |
| 20260831233611 | 15 | 198 | 0.0 | 0.0 | 0.00 | 0.00 | 0.00 | 98 | 1015.7 |
| 20260831233116 | 15 | 198 | 0.0 | 0.0 | 0.00 | 0.00 | 0.00 | 98 | 1015.9 |
| 20260831233100 | 15 | 198 | 0.0 | 0.0 | 0.00 | 0.00 | 0.00 | 98 | 1015.9 |
| 20260831233038 | 15 | 198 | 0.0 | 0.0 | 0.00 | 0.00 | 0.00 | 98 | 1015.6 |
| 20260831233020 | 15 | 198 | 0.0 | 0.0 | 0.00 | 0.00 | 0.00 | 99 | 1015.7 |
| 20260831233005 | 15 | 198 | 0.0 | 0.0 | 0.00 | 0.00 | 0.00 | 99 | 1015.7 |
| 20260831232730 | 15 | 198 | 0.0 | 0.0 | 0.00 | 0.00 | 0.00 | 98 | 1015.8 |
| 20260831232706 | 15 | 198 | 0.0 | 0.0 | 0.00 | 0.00 | 0.00 | 98 | 1015.7 |
| 20260831232418 | 15 | 198 | 0.0 | 0.0 | 0.00 | 0.00 | 0.00 | 98 | 1015.6 |
| 20260831232142 | 15 | 198 | 0.0 | 0.0 | 0.00 | 0.00 | 0.00 | 98 | 1015.8 |
| 20260831231915 | 15 | 198 | 0.0 | 0.0 | 0.00 | 0.00 | 0.00 | 98 | 1015.7 |
| 20260831231630 | 15 | 198 | 0.0 | 0.0 | 0.00 | 0.00 | 0.00 | 98 | 1015.8 |
| 20260831231614 | 15 | 198 | 0.0 | 0.0 | 0.00 | 0.00 | 0.00 | 98 | 1015.8 |
| 20260831231253 | 15 | 198 | 0.0 | 0.0 | 0.00 | 0.00 | 0.00 | 98 | 1015.7 |
| 20260831231230 | 15 | 198 | 0.0 | 0.0 | 0.00 | 0.00 | 0.00 | 98 | 1015.5 |
| 20260831231214 | 15 | 198 | 0.0 | 0.0 | 0.00 | 0.00 | 0.00 | 98 | 1015.6 |
| 20260831231159 | 15 | 198 | 0.0 | 0.0 | 0.00 | 0.00 | 0.00 | 98 | 1015.6 |
| 20260831230915 | 15 | 198 | 0.0 | 0.0 | 0.00 | 0.00 | 0.00 | 98 | 1015.9 |
| 20260831230553 | 15 | 198 | 0.0 | 0.0 | 0.00 | 0.00 | 0.00 | 98 | 1016.0 |
| 20260831230452 | 15 | 198 | 0.0 | 0.0 | 0.00 | 0.00 | 0.00 | 98 | 1015.9 |
| 20260831230353 | 15 | 198 | 0.0 | 0.0 | 0.00 | 0.00 | 0.00 | 98 | 1015.9 |
| 20260831230253 | 15 | 198 | 0.0 | 0.0 | 0.00 | 0.00 | 0.00 | 98 | 1015.9 |
| 20260831230239 | 15 | 198 | 0.0 | 0.0 | 0.00 | 0.00 | 0.00 | 98 | 1015.7 |
| 20260831230229 | 15 | 198 | 0.0 | 0.0 | 0.00 | 0.00 | 0.00 | 98 | 1015.9 |
| 20260831230213 | 15 | 198 | 0.0 | 0.0 | 0.00 | 0.00 | 0.00 | 98 | 1016.0 |
| 20260831230157 | 15 | 198 | 0.0 | 0.0 | 0.00 | 0.00 | 0.00 | 98 | 1015.7 |
| 20260831230141 | 15 | 198 | 0.0 | 0.0 | 0.00 | 0.00 | 0.00 | 98 | 1015.8 |
| 20260831230125 | 15 | 198 | 0.0 | 0.0 | 0.00 | 0.00 | 0.00 | 98 | 1015.7 |
| 20260831225624 | 15 | 198 | 0.0 | 0.0 | 0.00 | 0.00 | 0.00 | 98 | 1015.7 |
| 20260831225610 | 15 | 198 | 0.0 | 0.0 | 0.00 | 0.00 | 0.00 | 98 | 1015.6 |
| 20260831225555 | 15 | 198 | 0.0 | 0.0 | 0.00 | 0.00 | 0.00 | 98 | 1015.8 |
| 20260831225329 | 15 | 198 | 0.0 | 0.0 | 0.00 | 0.00 | 0.00 | 98 | 1015.6 |
| 20260831225313 | 15 | 198 | 0.0 | 0.0 | 0.00 | 0.00 | 0.00 | 98 | 1015.9 |
| 20260831225258 | 15 | 198 | 0.0 | 0.0 | 0.00 | 0.00 | 0.00 | 98 | 1016.0 |
| 20260831225242 | 15 | 198 | 0.0 | 0.0 | 0.00 | 0.00 | 0.00 | 98 | 1015.7 |
| 20260831224754 | 15 | 198 | 0.0 | 0.0 | 0.00 | 0.00 | 0.00 | 98 | 1016.0 |
| 20260831224653 | 15 | 198 | 0.0 | 0.0 | 0.00 | 0.00 | 0.00 | 98 | 1015.8 |
| 20260831224553 | 15 | 198 | 0.0 | 0.0 | 0.00 | 0.00 | 0.00 | 98 | 1015.8 |
| 20260831224454 | 15 | 198 | 0.0 | 0.0 | 0.00 | 0.00 | 0.00 | 98 | 1015.8 |
| 20260831224353 | 15 | 198 | 0.0 | 0.0 | 0.00 | 0.00 | 0.00 | 98 | 1015.7 |
| 20260831224254 | 15 | 198 | 0.0 | 0.0 | 0.00 | 0.00 | 0.00 | 98 | 1015.8 |
| 20260831224154 | 15 | 198 | 0.0 | 0.0 | 0.00 | 0.00 | 0.00 | 98 | 1015.7 |
| 20260831224055 | 15 | 198 | 0.0 | 0.0 | 0.00 | 0.00 | 0.00 | 98 | 1015.9 |
| 20260831224045 | 15 | 198 | 0.0 | 0.0 | 0.00 | 0.00 | 0.00 | 98 | 1015.9 |
| 20260831224036 | 15 | 198 | 0.0 | 0.0 | 0.00 | 0.00 | 0.00 | 98 | 1015.7 |
| 20260831224021 | 15 | 198 | 0.0 | 0.0 | 0.00 | 0.00 | 0.00 | 98 | 1015.7 |
| 20260831224004 | 15 | 198 | 0.0 | 0.0 | 0.00 | 0.00 | 0.00 | 98 | 1015.9 |
| 20260831223653 | 15 | 198 | 0.0 | 0.0 | 0.00 | 0.00 | 0.00 | 98 | 1015.7 |
| 20260831223553 | 15 | 198 | 0.0 | 0.0 | 0.00 | 0.00 | 0.00 | 98 | 1015.6 |
| 20260831223454 | 15 | 198 | 0.0 | 0.0 | 0.00 | 0.00 | 0.00 | 98 | 1016.0 |
| 20260831223353 | 15 | 198 | 0.0 | 0.0 | 0.00 | 0.00 | 0.00 | 98 | 1015.8 |
| 20260831223254 | 15 | 198 | 0.0 | 0.0 | 0.00 | 0.00 | 0.00 | 98 | 1015.8 |
| 20260831223153 | 15 | 198 | 0.0 | 0.0 | 0.00 | 0.00 | 0.00 | 98 | 1015.9 |
| 20260831223122 | 15 | 198 | 0.0 | 0.0 | 0.00 | 0.00 | 0.00 | 98 | 1015.9 |
| 20260831223117 | 15 | 198 | 0.0 | 0.0 | 0.00 | 0.00 | 0.00 | 98 | 1015.9 |
| 20260831223110 | 15 | 198 | 0.0 | 0.0 | 0.00 | 0.00 | 0.00 | 98 | 1015.7 |
| 20260831223053 | 15 | 198 | 0.0 | 0.0 | 0.00 | 0.00 | 0.00 | 98 | 1015.8 |
| 20260831223038 | 15 | 198 | 0.0 | 0.0 | 0.00 | 0.00 | 0.00 | 98 | 1015.7 |
| 20260831223021 | 15 | 198 | 0.0 | 0.0 | 0.00 | 0.00 | 0.00 | 98 | 1015.9 |
| 20260831222754 | 15 | 198 | 0.0 | 0.0 | 0.00 | 0.00 | 0.00 | 98 | 1016.0 |
| 20260831222738 | 15 | 198 | 0.0 | 0.0 | 0.00 | 0.00 | 0.00 | 98 | 1015.7 |
| 20260831222723 | 15 | 198 | 0.0 | 0.0 | 0.00 | 0.00 | 0.00 | 98 | 1015.8 |
| 20260831222707 | 15 | 198 | 0.0 | 0.0 | 0.00 | 0.00 | 0.00 | 98 | 1016.0 |
| 20260831222645 | 15 | 198 | 0.0 | 0.0 | 0.00 | 0.00 | 0.00 | 98 | 1015.8 |
| 20260831222629 | 15 | 198 | 0.0 | 0.0 | 0.00 | 0.00 | 0.00 | 98 | 1015.9 |
| 20260831222614 | 15 | 198 | 0.0 | 0.0 | 0.00 | 0.00 | 0.00 | 98 | 1015.8 |
| 20260831222338 | 15 | 198 | 0.0 | 0.0 | 0.00 | 0.00 | 0.00 | 98 | 1015.9 |
| 20260831221848 | 15 | 198 | 0.0 | 0.0 | 0.00 | 0.00 | 0.00 | 98 | 1015.8 |
| 20260831221832 | 15 | 198 | 0.0 | 0.0 | 0.00 | 0.00 | 0.00 | 98 | 1015.9 |
| 20260831221329 | 15 | 198 | 0.0 | 0.0 | 0.00 | 0.00 | 0.00 | 97 | 1015.9 |
| 20260831221313 | 15 | 198 | 0.0 | 0.0 | 0.00 | 0.00 | 0.00 | 97 | 1015.6 |
| 20260831220953 | 15 | 198 | 0.0 | 0.0 | 0.00 | 0.00 | 0.00 | 97 | 1015.7 |
| 20260831220853 | 15 | 198 | 0.0 | 0.0 | 0.00 | 0.00 | 0.00 | 97 | 1015.9 |
| 20260831220753 | 15 | 198 | 0.0 | 0.0 | 0.00 | 0.00 | 0.00 | 97 | 1015.7 |
| 20260831220653 | 15 | 198 | 0.0 | 0.0 | 0.00 | 0.00 | 0.00 | 97 | 1015.7 |
| 20260831220552 | 15 | 198 | 0.0 | 0.0 | 0.00 | 0.00 | 0.00 | 97 | 1015.6 |
| 20260831220535 | 15 | 198 | 0.0 | 0.0 | 0.00 | 0.00 | 0.00 | 97 | 1015.8 |
| 20260831220519 | 15 | 198 | 0.0 | 0.0 | 0.00 | 0.00 | 0.00 | 97 | 1015.8 |
| 20260831220254 | 15 | 198 | 0.0 | 0.0 | 0.00 | 0.00 | 0.00 | 97 | 1015.7 |
| 20260831220154 | 15 | 198 | 0.0 | 0.0 | 0.00 | 0.00 | 0.00 | 97 | 1015.9 |
| 20260831220053 | 15 | 198 | 0.0 | 0.0 | 0.00 | 0.00 | 0.00 | 97 | 1015.6 |
| 20260831215953 | 15 | 198 | 0.0 | 0.0 | 0.00 | 0.00 | 0.00 | 97 | 1015.7 |
| 20260831215852 | 15 | 198 | 0.0 | 0.0 | 0.00 | 0.00 | 0.00 | 97 | 1015.7 |
| 20260831215753 | 15 | 198 | 0.0 | 0.0 | 0.00 | 0.00 | 0.00 | 97 | 1015.6 |
| 20260831215654 | 15 | 198 | 0.0 | 0.0 | 0.00 | 0.00 | 0.00 | 97 | 1015.7 |
| 20260831215553 | 15 | 198 | 0.0 | 0.0 | 0.00 | 0.00 | 0.00 | 97 | 1015.6 |
| 20260831215453 | 15 | 198 | 0.0 | 0.0 | 0.00 | 0.00 | 0.00 | 97 | 1015.5 |
| 20260831215434 | 15 | 198 | 0.0 | 0.0 | 0.00 | 0.00 | 0.00 | 97 | 1015.7 |
| 20260831215408 | 15 | 198 | 0.0 | 0.0 | 0.00 | 0.00 | 0.00 | 97 | 1015.6 |
| 20260831215054 | 15 | 198 | 0.0 | 0.0 | 0.00 | 0.00 | 0.00 | 97 | 1015.9 |
| 20260831214953 | 15 | 198 | 0.0 | 0.0 | 0.00 | 0.00 | 0.00 | 96 | 1015.6 |
| 20260831214851 | 15 | 198 | 0.0 | 0.0 | 0.00 | 0.00 | 0.00 | 96 | 1015.8 |
| 20260831214722 | 15 | 198 | 0.0 | 0.0 | 0.00 | 0.00 | 0.00 | 96 | 1015.6 |
| 20260831214649 | 15 | 198 | 0.0 | 0.0 | 0.00 | 0.00 | 0.00 | 96 | 1015.7 |
| 20260831214549 | 15 | 198 | 0.0 | 0.0 | 0.00 | 0.00 | 0.00 | 96 | 1015.6 |
| 20260831214526 | 16 | 198 | 0.0 | 0.0 | 0.00 | 0.00 | 0.00 | 96 | 1015.7 |
| 20260831214511 | 16 | 198 | 0.0 | 0.0 | 0.00 | 0.00 | 0.00 | 96 | 1015.6 |
| 20260831214221 | 16 | 198 | 0.0 | 0.0 | 0.00 | 0.00 | 0.00 | 96 | 1015.5 |
| 20260831214149 | 16 | 198 | 0.0 | 0.0 | 0.00 | 0.00 | 0.00 | 96 | 1015.6 |
| 20260831214049 | 16 | 198 | 0.0 | 0.0 | 0.00 | 0.00 | 0.00 | 96 | 1015.7 |
| 20260831213949 | 16 | 198 | 0.0 | 0.0 | 0.00 | 0.00 | 0.00 | 96 | 1015.9 |
| 20260831213850 | 16 | 198 | 0.0 | 0.0 | 0.00 | 0.00 | 0.00 | 96 | 1015.7 |
| 20260831213721 | 16 | 198 | 0.0 | 0.0 | 0.00 | 0.00 | 0.00 | 96 | 1015.6 |
| 20260831213649 | 16 | 198 | 0.0 | 0.0 | 0.00 | 0.00 | 0.00 | 96 | 1015.6 |
| 20260831213550 | 16 | 198 | 0.0 | 0.0 | 0.00 | 0.00 | 0.00 | 96 | 1015.8 |
| 20260831213450 | 16 | 198 | 0.0 | 0.0 | 0.00 | 0.00 | 0.00 | 96 | 1015.6 |
| 20260831213349 | 16 | 198 | 0.0 | 0.0 | 0.00 | 0.00 | 0.00 | 96 | 1015.8 |
| 20260831213235 | 16 | 198 | 0.0 | 0.0 | 0.00 | 0.00 | 0.00 | 96 | 1015.5 |
| 20260831213230 | 16 | 200 | 0.0 | 0.0 | 0.00 | 0.00 | 0.00 | 94 | 1015.0 |
| 20260831213222 | 16 | 198 | 0.0 | 0.0 | 0.00 | 0.00 | 0.00 | 96 | 1015.9 |
| 20260831213215 | 16 | 198 | 0.0 | 0.0 | 0.00 | 0.00 | 0.00 | 96 | 1015.3 |
| 20260831213208 | 16 | 198 | 0.0 | 0.0 | 0.00 | 0.00 | 0.00 | 96 | 1015.9 |
| 20260831213154 | 16 | 198 | 0.0 | 0.0 | 0.00 | 0.00 | 0.00 | 96 | 1015.6 |
| 20260831213138 | 16 | 198 | 0.0 | 0.0 | 0.00 | 0.00 | 0.00 | 96 | 1015.7 |
| 20260831212917 | 16 | 196 | 0.0 | 0.0 | 0.00 | 0.00 | 0.00 | 96 | 1015.4 |
| 20260831212911 | 16 | 200 | 0.0 | 0.0 | 0.00 | 0.00 | 0.00 | 94 | 1015.4 |
| 20260831212904 | 16 | 198 | 0.0 | 0.0 | 0.00 | 0.00 | 0.00 | 96 | 1015.8 |
| 20260831212832 | 16 | 198 | 0.0 | 0.0 | 0.00 | 0.00 | 0.00 | 96 | 1015.7 |
| 20260831212823 | 16 | 198 | 0.0 | 0.0 | 0.00 | 0.00 | 0.00 | 96 | 1015.7 |
| 20260831212808 | 16 | 198 | 0.0 | 0.0 | 0.00 | 0.00 | 0.00 | 96 | 1015.9 |
| 20260831212752 | 16 | 198 | 0.0 | 0.0 | 0.00 | 0.00 | 0.00 | 96 | 1015.4 |
| 20260831212736 | 16 | 198 | 0.0 | 0.0 | 0.00 | 0.00 | 0.00 | 96 | 1015.7 |
| 20260831212721 | 16 | 198 | 0.0 | 0.0 | 0.00 | 0.00 | 0.00 | 96 | 1015.3 |
| 20260831212453 | 16 | 198 | 0.0 | 0.0 | 0.00 | 0.00 | 0.00 | 96 | 1015.3 |
| 20260831212437 | 16 | 198 | 0.0 | 0.0 | 0.00 | 0.00 | 0.00 | 96 | 1015.2 |
| 20260831212422 | 16 | 198 | 0.0 | 0.0 | 0.00 | 0.00 | 0.00 | 96 | 1015.3 |
| 20260831212407 | 16 | 198 | 0.0 | 0.0 | 0.00 | 0.00 | 0.00 | 96 | 1015.5 |
| 20260831212336 | 16 | 198 | 0.0 | 0.0 | 0.00 | 0.00 | 0.00 | 96 | 1015.4 |
| 20260831212327 | 16 | 198 | 0.0 | 0.0 | 0.00 | 0.00 | 0.00 | 96 | 1015.2 |
| 20260831212311 | 16 | 198 | 0.0 | 0.0 | 0.00 | 0.00 | 0.00 | 96 | 1015.5 |
| 20260831212256 | 16 | 198 | 0.0 | 0.0 | 0.00 | 0.00 | 0.00 | 96 | 1015.5 |
| 20260831212242 | 16 | 198 | 0.0 | 0.0 | 0.00 | 0.00 | 0.00 | 96 | 1015.5 |
| 20260831212227 | 16 | 198 | 0.0 | 0.0 | 0.00 | 0.00 | 0.00 | 96 | 1015.5 |
| 20260831211519 | 16 | 198 | 0.0 | 0.0 | 0.00 | 0.00 | 0.00 | 96 | 1015.5 |
| 20260831211503 | 16 | 197 | 0.0 | 0.0 | 0.00 | 0.00 | 0.00 | 96 | 1015.3 |
| 20260831210754 | 16 | 198 | 0.0 | 0.0 | 0.00 | 0.00 | 0.00 | 96 | 1015.4 |
| 20260831210532 | 17 | 200 | 0.0 | 0.0 | 0.00 | 0.00 | 0.00 | 92 | 1015.1 |
| 20260831210522 | 16 | 198 | 0.0 | 0.0 | 0.00 | 0.00 | 0.00 | 96 | 1015.4 |
| 20260831210506 | 16 | 198 | 0.0 | 0.0 | 0.00 | 0.00 | 0.00 | 95 | 1015.3 |
| 20260831210438 | 16 | 198 | 0.0 | 0.0 | 0.00 | 0.00 | 0.00 | 95 | 1015.7 |
| 20260831210207 | 16 | 198 | 0.0 | 0.0 | 0.00 | 0.00 | 0.00 | 95 | 1015.6 |
| 20260831210152 | 16 | 200 | 0.0 | 0.0 | 0.00 | 0.00 | 0.00 | 95 | 1015.5 |
| 20260831210136 | 16 | 200 | 0.0 | 0.0 | 0.00 | 0.00 | 0.00 | 95 | 1015.4 |
| 20260831210121 | 16 | 200 | 0.0 | 0.0 | 0.00 | 0.00 | 0.00 | 95 | 1015.5 |
| 20260831210105 | 16 | 200 | 0.0 | 0.0 | 0.00 | 0.00 | 0.00 | 94 | 1015.5 |
| 20260831210047 | 16 | 200 | 0.0 | 0.0 | 0.00 | 0.00 | 0.00 | 94 | 1015.6 |
| 20260831210032 | 16 | 200 | 0.0 | 0.0 | 0.00 | 0.00 | 0.00 | 94 | 1015.6 |
| 20260831210016 | 16 | 200 | 0.0 | 0.0 | 0.00 | 0.00 | 0.00 | 94 | 1015.6 |
| 20260831205726 | 16 | 200 | 0.0 | 0.0 | 0.00 | 0.00 | 0.00 | 94 | 1015.4 |
| 20260831205717 | 16 | 200 | 0.0 | 0.0 | 0.00 | 0.00 | 0.00 | 94 | 1015.6 |
| 20260831205222 | 16 | 200 | 0.0 | 0.0 | 0.00 | 0.00 | 0.00 | 94 | 1015.5 |
| 20260831205206 | 16 | 200 | 0.0 | 0.0 | 0.00 | 0.00 | 0.00 | 94 | 1015.4 |
| 20260831204938 | 16 | 200 | 0.0 | 0.0 | 0.00 | 0.00 | 0.00 | 94 | 1015.4 |
| 20260831204922 | 16 | 200 | 0.0 | 0.0 | 0.00 | 0.00 | 0.00 | 94 | 1015.3 |
| 20260831204907 | 16 | 200 | 0.0 | 0.0 | 0.00 | 0.00 | 0.00 | 94 | 1015.2 |
| 20260831204851 | 16 | 200 | 0.0 | 0.0 | 0.00 | 0.00 | 0.00 | 94 | 1015.4 |
| 20260831204835 | 16 | 200 | 0.0 | 0.0 | 0.00 | 0.00 | 0.00 | 94 | 1015.0 |
| 20260831204608 | 16 | 200 | 0.0 | 0.0 | 0.00 | 0.00 | 0.00 | 94 | 1015.2 |
| 20260831204553 | 16 | 200 | 0.0 | 0.0 | 0.00 | 0.00 | 0.00 | 94 | 1015.2 |
| 20260831204538 | 16 | 200 | 0.0 | 0.0 | 0.00 | 0.00 | 0.00 | 94 | 1015.2 |
| 20260831204521 | 17 | 200 | 0.0 | 0.0 | 0.00 | 0.00 | 0.00 | 93 | 1015.3 |
| 20260831204450 | 17 | 200 | 0.0 | 0.0 | 0.00 | 0.00 | 0.00 | 93 | 1015.1 |
| 20260831204441 | 17 | 200 | 0.0 | 0.0 | 0.00 | 0.00 | 0.00 | 93 | 1015.2 |
| 20260831204425 | 17 | 200 | 0.0 | 0.0 | 0.00 | 0.00 | 0.00 | 93 | 1015.1 |
| 20260831203713 | 17 | 200 | 0.0 | 0.0 | 0.00 | 0.00 | 0.00 | 93 | 1015.1 |
| 20260831203704 | 17 | 200 | 0.0 | 0.0 | 0.00 | 0.00 | 0.00 | 93 | 1015.1 |
| 20260831203648 | 17 | 200 | 0.0 | 0.0 | 0.00 | 0.00 | 0.00 | 93 | 1015.0 |
| 20260831203632 | 17 | 200 | 0.0 | 0.0 | 0.00 | 0.00 | 0.00 | 93 | 1015.0 |
| 20260831203616 | 17 | 200 | 0.0 | 0.0 | 0.00 | 0.00 | 0.00 | 93 | 1015.1 |
| 20260831203341 | 17 | 200 | 0.0 | 0.0 | 0.00 | 0.00 | 0.00 | 92 | 1015.1 |
| 20260831203332 | 17 | 200 | 0.0 | 0.0 | 0.00 | 0.00 | 0.00 | 92 | 1014.9 |
| 20260831203056 | 17 | 200 | 0.0 | 0.0 | 0.00 | 0.00 | 0.00 | 92 | 1015.1 |
| 20260831203040 | 17 | 200 | 0.0 | 0.0 | 0.00 | 0.00 | 0.00 | 92 | 1015.3 |
| 20260831202807 | 17 | 200 | 0.0 | 0.0 | 0.00 | 0.00 | 0.00 | 92 | 1015.2 |
| 20260831202539 | 17 | 200 | 0.0 | 0.0 | 0.00 | 0.00 | 0.00 | 92 | 1015.1 |
| 20260831202522 | 17 | 200 | 0.0 | 0.0 | 0.00 | 0.00 | 0.00 | 92 | 1015.0 |
| 20260831202506 | 17 | 200 | 0.0 | 0.0 | 0.00 | 0.00 | 0.00 | 92 | 1015.3 |
| 20260831202450 | 17 | 200 | 0.0 | 0.0 | 0.00 | 0.00 | 0.00 | 92 | 1015.1 |
| 20260831202221 | 17 | 200 | 0.0 | 0.0 | 0.00 | 0.00 | 0.00 | 92 | 1015.1 |
| 20260831202204 | 17 | 200 | 0.0 | 0.0 | 0.00 | 0.00 | 0.00 | 92 | 1015.1 |
| 20260831202149 | 17 | 200 | 0.0 | 0.0 | 0.00 | 0.00 | 0.00 | 92 | 1015.0 |
| 20260831201859 | 17 | 200 | 0.0 | 0.0 | 0.00 | 0.00 | 0.00 | 92 | 1015.0 |
| 20260831201849 | 17 | 200 | 0.0 | 0.0 | 0.00 | 0.00 | 0.00 | 92 | 1015.2 |
| 20260831201833 | 17 | 200 | 0.0 | 0.0 | 0.00 | 0.00 | 0.00 | 92 | 1015.2 |
| 20260831201818 | 17 | 200 | 0.0 | 0.0 | 0.00 | 0.00 | 0.00 | 92 | 1015.1 |
| 20260831201802 | 17 | 200 | 0.0 | 0.0 | 0.00 | 0.00 | 0.00 | 92 | 1015.0 |
| 20260831201747 | 17 | 200 | 0.0 | 0.0 | 0.00 | 0.00 | 0.00 | 92 | 1015.2 |
| 20260831201732 | 17 | 200 | 0.0 | 0.0 | 0.00 | 0.00 | 0.00 | 91 | 1015.2 |
| 20260831201024 | 17 | 200 | 0.0 | 0.0 | 0.00 | 0.00 | 0.00 | 91 | 1014.9 |
| 20260831200955 | 17 | 200 | 0.0 | 0.0 | 0.00 | 0.00 | 0.00 | 91 | 1014.9 |
| 20260831200945 | 17 | 200 | 0.0 | 0.0 | 0.00 | 0.00 | 0.00 | 91 | 1015.1 |
| 20260831200010 | 17 | 200 | 0.0 | 0.0 | 0.00 | 0.00 | 0.00 | 91 | 1014.9 |
| 20260831195739 | 17 | 200 | 0.0 | 0.0 | 0.00 | 0.00 | 0.00 | 91 | 1015.0 |
| 20260831195501 | 17 | 200 | 0.0 | 0.0 | 0.00 | 0.00 | 0.00 | 91 | 1014.8 |
| 20260831195216 | 17 | 200 | 0.0 | 0.0 | 0.00 | 0.00 | 0.00 | 91 | 1015.0 |
| 20260831195143 | 17 | 200 | 0.0 | 0.0 | 0.00 | 0.00 | 0.00 | 91 | 1014.8 |
| 20260831195044 | 17 | 200 | 0.0 | 0.0 | 0.00 | 0.00 | 0.00 | 90 | 1014.9 |
| 20260831194943 | 17 | 200 | 0.0 | 0.0 | 0.00 | 0.00 | 0.00 | 90 | 1015.1 |
| 20260831194844 | 17 | 200 | 0.0 | 0.0 | 0.00 | 0.00 | 0.00 | 90 | 1015.1 |
| 20260831194715 | 17 | 200 | 0.0 | 0.0 | 0.00 | 0.00 | 0.00 | 90 | 1015.1 |
| 20260831194643 | 17 | 200 | 0.0 | 0.0 | 0.00 | 0.00 | 0.00 | 90 | 1014.9 |
| 20260831194543 | 17 | 200 | 0.0 | 0.0 | 0.00 | 0.00 | 0.00 | 90 | 1014.8 |
| 20260831194520 | 17 | 200 | 0.0 | 0.0 | 0.00 | 0.00 | 0.00 | 90 | 1015.0 |
| 20260831194503 | 17 | 200 | 0.0 | 0.0 | 0.00 | 0.00 | 0.00 | 90 | 1014.8 |
| 20260831194216 | 18 | 200 | 0.0 | 0.0 | 0.00 | 0.00 | 0.00 | 90 | 1014.9 |
| 20260831194158 | 18 | 200 | 0.0 | 0.0 | 0.00 | 0.00 | 0.00 | 90 | 1015.0 |
| 20260831194154 | 18 | 200 | 0.0 | 0.0 | 0.00 | 0.00 | 0.00 | 89 | 1015.0 |
| 20260831194149 | 18 | 200 | 0.0 | 0.0 | 0.00 | 0.00 | 0.00 | 90 | 1015.1 |
| 20260831194133 | 18 | 200 | 0.0 | 0.0 | 0.00 | 0.00 | 0.00 | 90 | 1014.8 |
| 20260831194117 | 18 | 200 | 0.0 | 0.0 | 0.00 | 0.00 | 0.00 | 90 | 1014.7 |
| 20260831194101 | 18 | 200 | 0.0 | 0.0 | 0.00 | 0.00 | 0.00 | 90 | 1014.9 |
| 20260831194046 | 18 | 200 | 0.0 | 0.0 | 0.00 | 0.00 | 0.00 | 90 | 1015.0 |
| 20260831193817 | 18 | 200 | 0.0 | 0.0 | 0.00 | 0.00 | 0.00 | 90 | 1014.9 |
| 20260831193802 | 18 | 200 | 0.0 | 0.0 | 0.00 | 0.00 | 0.00 | 90 | 1014.9 |
| 20260831193746 | 18 | 200 | 0.0 | 0.0 | 0.00 | 0.00 | 0.00 | 90 | 1014.9 |
| 20260831193731 | 18 | 200 | 0.0 | 0.0 | 0.00 | 0.00 | 0.00 | 90 | 1014.7 |
| 20260831193458 | 18 | 200 | 0.0 | 0.0 | 0.00 | 0.00 | 0.00 | 90 | 1014.9 |
| 20260831193229 | 18 | 200 | 0.0 | 0.0 | 0.00 | 0.00 | 0.00 | 89 | 1015.1 |
| 20260831193213 | 18 | 200 | 0.0 | 0.0 | 0.00 | 0.00 | 0.00 | 89 | 1015.0 |
| 20260831193157 | 18 | 200 | 0.0 | 0.0 | 0.00 | 0.00 | 0.00 | 89 | 1014.9 |
| 20260831192643 | 18 | 200 | 0.0 | 0.0 | 0.00 | 0.00 | 0.00 | 89 | 1014.8 |
| 20260831192620 | 18 | 200 | 0.0 | 0.0 | 0.00 | 0.00 | 0.00 | 89 | 1014.9 |
| 20260831192604 | 18 | 200 | 0.0 | 0.0 | 0.00 | 0.00 | 0.00 | 89 | 1015.1 |
| 20260831192547 | 18 | 200 | 0.0 | 0.0 | 0.00 | 0.00 | 0.00 | 89 | 1014.9 |
| 20260831192313 | 18 | 200 | 0.0 | 0.0 | 0.00 | 0.00 | 0.00 | 89 | 1014.8 |
| 20260831192305 | 18 | 200 | 0.0 | 0.0 | 0.00 | 0.00 | 0.00 | 89 | 1015.0 |
| 20260831192011 | 18 | 200 | 0.0 | 0.0 | 0.00 | 0.00 | 0.00 | 89 | 1014.9 |
| 20260831192004 | 18 | 200 | 0.0 | 0.0 | 0.00 | 0.00 | 0.00 | 89 | 1014.8 |
| 20260831191948 | 18 | 200 | 0.0 | 0.0 | 0.00 | 0.00 | 0.00 | 89 | 1014.9 |
| 20260831191933 | 18 | 200 | 0.0 | 0.0 | 0.00 | 0.00 | 0.00 | 89 | 1014.9 |
| 20260831191642 | 18 | 200 | 0.0 | 0.0 | 0.00 | 0.00 | 0.00 | 89 | 1015.0 |
| 20260831191618 | 18 | 200 | 0.0 | 0.0 | 0.00 | 0.00 | 0.00 | 89 | 1015.0 |
| 20260831191602 | 18 | 200 | 0.0 | 0.0 | 0.00 | 0.00 | 0.00 | 88 | 1015.0 |
| 20260831191215 | 18 | 200 | 0.0 | 0.0 | 0.00 | 0.00 | 0.00 | 88 | 1015.0 |
| 20260831191143 | 18 | 200 | 0.0 | 0.0 | 0.00 | 0.00 | 0.00 | 88 | 1014.9 |
| 20260831191043 | 18 | 200 | 0.0 | 0.0 | 0.00 | 0.00 | 0.00 | 88 | 1014.9 |
| 20260831190943 | 18 | 200 | 0.0 | 0.0 | 0.00 | 0.00 | 0.00 | 88 | 1015.0 |
| 20260831190842 | 18 | 200 | 0.0 | 0.0 | 0.00 | 0.00 | 0.00 | 88 | 1014.6 |
| 20260831190812 | 18 | 200 | 0.0 | 0.0 | 0.00 | 0.00 | 0.00 | 88 | 1014.8 |
| 20260831190803 | 18 | 200 | 0.0 | 0.0 | 0.00 | 0.00 | 0.00 | 88 | 1014.9 |
| 20260831190443 | 18 | 200 | 0.0 | 0.0 | 0.00 | 0.00 | 0.00 | 87 | 1014.9 |
| 20260831190343 | 18 | 200 | 0.0 | 0.0 | 0.00 | 0.00 | 0.00 | 87 | 1015.0 |
| 20260831190215 | 18 | 200 | 0.0 | 0.0 | 0.00 | 0.00 | 0.00 | 87 | 1014.9 |
| 20260831190144 | 18 | 200 | 0.0 | 0.0 | 0.00 | 0.00 | 0.00 | 87 | 1014.9 |
| 20260831190119 | 18 | 200 | 0.0 | 0.0 | 0.00 | 0.00 | 0.00 | 87 | 1014.9 |
| 20260831185715 | 18 | 200 | 0.0 | 0.0 | 0.00 | 0.00 | 0.00 | 87 | 1014.8 |
| 20260831185643 | 19 | 200 | 0.0 | 0.0 | 0.00 | 0.00 | 0.00 | 87 | 1014.9 |
| 20260831185542 | 19 | 200 | 0.0 | 0.0 | 0.00 | 0.00 | 0.00 | 87 | 1014.8 |
| 20260831185444 | 19 | 200 | 0.0 | 0.0 | 0.00 | 0.00 | 0.00 | 87 | 1014.8 |
| 20260831185343 | 19 | 199 | 0.0 | 0.0 | 0.00 | 0.00 | 0.00 | 86 | 1014.8 |
| 20260831185231 | 19 | 199 | 0.0 | 0.0 | 0.00 | 0.00 | 0.00 | 86 | 1014.9 |
| 20260831185222 | 19 | 199 | 0.0 | 0.0 | 0.00 | 0.00 | 0.00 | 86 | 1014.6 |
| 20260831185206 | 19 | 199 | 0.0 | 0.0 | 0.00 | 0.00 | 0.00 | 86 | 1014.8 |
| 20260831185149 | 19 | 198 | 0.0 | 0.0 | 0.00 | 0.00 | 0.00 | 86 | 1014.7 |
| 20260831185133 | 19 | 198 | 0.0 | 0.0 | 0.00 | 0.00 | 0.00 | 86 | 1014.7 |
| 20260831184857 | 19 | 198 | 0.0 | 0.0 | 0.00 | 0.00 | 0.00 | 86 | 1014.8 |
| 20260831184543 | 19 | 198 | 0.0 | 0.0 | 0.00 | 0.00 | 0.00 | 86 | 1014.7 |
| 20260831184443 | 19 | 198 | 0.0 | 0.0 | 0.00 | 0.00 | 0.00 | 86 | 1014.7 |
| 20260831184343 | 19 | 190 | 0.0 | 0.0 | 0.00 | 0.00 | 0.00 | 86 | 1014.6 |
| 20260831184215 | 19 | 201 | 0.0 | 0.0 | 0.00 | 0.00 | 0.00 | 86 | 1014.5 |
| 20260831184143 | 19 | 201 | 0.0 | 0.0 | 0.00 | 0.00 | 0.00 | 85 | 1014.8 |
| 20260831184043 | 19 | 201 | 0.0 | 0.0 | 0.00 | 0.00 | 0.00 | 85 | 1014.8 |
| 20260831183943 | 19 | 201 | 0.0 | 0.0 | 0.00 | 0.00 | 0.00 | 85 | 1014.8 |
| 20260831183844 | 19 | 201 | 0.0 | 0.0 | 0.00 | 0.00 | 0.00 | 85 | 1014.7 |
| 20260831183808 | 19 | 201 | 0.0 | 0.0 | 0.00 | 0.00 | 0.00 | 85 | 1014.6 |
| 20260831183759 | 19 | 200 | 0.0 | 0.0 | 0.00 | 0.00 | 0.00 | 85 | 1014.6 |
| 20260831183742 | 19 | 200 | 0.0 | 0.0 | 0.00 | 0.00 | 0.00 | 85 | 1014.6 |
| 20260831183726 | 20 | 200 | 0.0 | 0.0 | 0.00 | 0.00 | 0.00 | 85 | 1014.9 |
| 20260831183215 | 20 | 199 | 0.0 | 1.6 | 0.00 | 0.00 | 0.00 | 84 | 1014.7 |
| 20260831183143 | 20 | 199 | 0.0 | 1.6 | 0.00 | 0.00 | 0.00 | 84 | 1014.8 |
| 20260831183044 | 20 | 200 | 0.0 | 1.6 | 0.00 | 0.00 | 0.00 | 84 | 1014.8 |
| 20260831182944 | 20 | 204 | 0.0 | 1.6 | 0.00 | 0.00 | 0.00 | 84 | 1014.6 |
| 20260831182843 | 20 | 199 | 0.0 | 1.6 | 0.00 | 0.00 | 0.00 | 84 | 1014.8 |
| 20260831182744 | 20 | 199 | 0.0 | 1.6 | 0.00 | 0.00 | 0.00 | 84 | 1014.8 |
| 20260831182715 | 20 | 196 | 0.0 | 1.6 | 0.00 | 0.00 | 0.00 | 84 | 1014.8 |
| 20260831182643 | 20 | 196 | 0.0 | 1.6 | 0.00 | 0.00 | 0.00 | 84 | 1014.8 |
| 20260831182542 | 20 | 196 | 0.0 | 1.6 | 0.00 | 0.00 | 0.00 | 84 | 1014.7 |
| 20260831182443 | 20 | 200 | 0.0 | 1.6 | 0.00 | 0.00 | 0.00 | 84 | 1014.7 |
| 20260831182343 | 20 | 200 | 0.0 | 1.6 | 0.00 | 0.00 | 0.00 | 84 | 1015.0 |
| 20260831182243 | 20 | 200 | 0.0 | 3.2 | 0.00 | 0.00 | 0.00 | 84 | 1014.8 |
| 20260831182215 | 20 | 199 | 0.0 | 3.2 | 0.00 | 0.00 | 0.00 | 84 | 1014.8 |
| 20260831182143 | 20 | 202 | 0.0 | 3.2 | 0.00 | 0.00 | 0.00 | 84 | 1014.7 |
| 20260831182043 | 20 | 200 | 0.0 | 3.2 | 0.00 | 0.00 | 0.00 | 84 | 1014.7 |
| 20260831181944 | 20 | 200 | 0.0 | 3.2 | 0.00 | 0.00 | 0.00 | 83 | 1014.8 |
| 20260831181844 | 20 | 198 | 0.0 | 3.2 | 0.00 | 0.00 | 0.00 | 83 | 1014.7 |
| 20260831181809 | 20 | 199 | 0.0 | 0.0 | 0.00 | 0.00 | 0.00 | 82 | 1014.9 |
| 20260831181803 | 20 | 201 | 0.0 | 3.2 | 0.00 | 0.00 | 0.00 | 83 | 1014.8 |
| 20260831181748 | 20 | 200 | 0.0 | 3.2 | 0.00 | 0.00 | 0.00 | 83 | 1014.8 |
| 20260831181738 | 20 | 201 | 0.0 | 3.2 | 0.00 | 0.00 | 0.00 | 83 | 1014.7 |
| 20260831181723 | 20 | 183 | 0.0 | 3.2 | 0.00 | 0.00 | 0.00 | 83 | 1014.7 |
| 20260831181708 | 20 | 194 | 0.0 | 3.2 | 0.00 | 0.00 | 0.00 | 83 | 1014.8 |
| 20260831181652 | 20 | 191 | 0.0 | 3.2 | 0.00 | 0.00 | 0.00 | 82 | 1014.7 |
| 20260831181133 | 20 | 199 | 0.0 | 0.0 | 0.00 | 0.00 | 0.00 | 82 | 1014.6 |
| 20260831181030 | 20 | 196 | 0.0 | 0.0 | 0.00 | 0.00 | 0.00 | 82 | 1014.6 |
| 20260831180931 | 20 | 196 | 0.0 | 0.0 | 0.00 | 0.00 | 0.00 | 81 | 1014.6 |
| 20260831180916 | 20 | 196 | 0.0 | 0.0 | 0.00 | 0.00 | 0.00 | 81 | 1014.3 |
| 20260831180846 | 20 | 196 | 0.0 | 0.0 | 0.00 | 0.00 | 0.00 | 81 | 1014.5 |
| 20260831180520 | 20 | 204 | 0.0 | 0.0 | 0.00 | 0.00 | 0.00 | 81 | 1014.2 |
| 20260831180421 | 20 | 196 | 0.0 | 0.0 | 0.00 | 0.00 | 0.00 | 81 | 1014.5 |
| 20260831180319 | 20 | 198 | 0.0 | 1.6 | 0.00 | 0.00 | 0.00 | 80 | 1014.2 |
| 20260831180218 | 20 | 196 | 0.0 | 1.6 | 0.00 | 0.00 | 0.00 | 80 | 1014.2 |
| 20260831180119 | 21 | 196 | 0.0 | 1.6 | 0.00 | 0.00 | 0.00 | 80 | 1014.2 |
| 20260831180019 | 21 | 193 | 0.0 | 1.6 | 0.00 | 0.00 | 0.00 | 80 | 1014.5 |
| 20260831175920 | 21 | 194 | 0.0 | 1.6 | 0.00 | 0.00 | 0.00 | 80 | 1014.3 |
| 20260831175819 | 21 | 193 | 0.0 | 1.6 | 0.00 | 0.00 | 0.00 | 80 | 1014.2 |
| 20260831175719 | 21 | 190 | 0.0 | 1.6 | 0.00 | 0.00 | 0.00 | 79 | 1014.2 |
| 20260831175619 | 21 | 193 | 0.0 | 1.6 | 0.00 | 0.00 | 0.00 | 79 | 1014.5 |
| 20260831175520 | 21 | 192 | 0.0 | 1.6 | 0.00 | 0.00 | 0.00 | 79 | 1014.2 |
| 20260831175510 | 21 | 193 | 0.0 | 1.6 | 0.00 | 0.00 | 0.00 | 78 | 1014.1 |
| 20260831175501 | 21 | 198 | 0.0 | 1.6 | 0.00 | 0.00 | 0.00 | 79 | 1014.2 |
| 20260831175445 | 21 | 192 | 0.0 | 1.6 | 0.00 | 0.00 | 0.00 | 78 | 1014.1 |
| 20260831175428 | 21 | 193 | 0.0 | 1.6 | 0.00 | 0.00 | 0.00 | 78 | 1014.1 |
| 20260831175120 | 21 | 194 | 0.0 | 1.6 | 0.00 | 0.00 | 0.00 | 78 | 1014.2 |
| 20260831175020 | 21 | 196 | 0.0 | 1.6 | 0.00 | 0.00 | 0.00 | 78 | 1014.1 |
| 20260831174919 | 21 | 193 | 0.0 | 1.6 | 0.00 | 0.00 | 0.00 | 78 | 1014.0 |
| 20260831174819 | 21 | 193 | 0.0 | 1.6 | 0.00 | 0.00 | 0.00 | 78 | 1014.1 |
| 20260831174720 | 21 | 194 | 0.0 | 1.6 | 0.00 | 0.00 | 0.00 | 78 | 1013.9 |
| 20260831174619 | 21 | 199 | 0.0 | 1.6 | 0.00 | 0.00 | 0.00 | 78 | 1014.0 |
| 20260831174556 | 21 | 192 | 0.0 | 1.6 | 0.00 | 0.00 | 0.00 | 78 | 1014.1 |
| 20260831174540 | 21 | 184 | 0.0 | 1.6 | 0.00 | 0.00 | 0.00 | 78 | 1014.3 |
| 20260831174219 | 21 | 194 | 0.0 | 3.2 | 0.00 | 0.00 | 0.00 | 78 | 1014.3 |
| 20260831174120 | 21 | 199 | 0.0 | 3.2 | 0.00 | 0.00 | 0.00 | 78 | 1014.0 |
| 20260831174019 | 21 | 209 | 0.0 | 3.2 | 0.00 | 0.00 | 0.00 | 78 | 1014.1 |
| 20260831173919 | 21 | 184 | 0.0 | 3.2 | 0.00 | 0.00 | 0.00 | 78 | 1013.9 |
| 20260831173820 | 21 | 190 | 0.0 | 3.2 | 0.00 | 0.00 | 0.00 | 78 | 1013.9 |
| 20260831173755 | 21 | 198 | 0.0 | 3.2 | 0.00 | 0.00 | 0.00 | 78 | 1014.1 |
| 20260831173739 | 21 | 194 | 0.0 | 3.2 | 0.00 | 0.00 | 0.00 | 79 | 1014.0 |
| 20260831173419 | 21 | 202 | 1.6 | 3.2 | 0.00 | 0.00 | 0.00 | 79 | 1014.0 |
| 20260831173402 | 21 | 168 | 1.6 | 3.2 | 0.00 | 0.00 | 0.00 | 79 | 1014.0 |
| 20260831173340 | 21 | 176 | 0.0 | 1.6 | 0.00 | 0.00 | 0.00 | 79 | 1013.8 |
| 20260831173019 | 21 | 202 | 0.0 | 1.6 | 0.00 | 0.00 | 0.00 | 79 | 1013.7 |
| 20260831172919 | 21 | 179 | 0.0 | 1.6 | 0.00 | 0.00 | 0.00 | 79 | 1013.7 |
| 20260831172854 | 21 | 199 | 0.0 | 1.6 | 0.00 | 0.00 | 0.00 | 80 | 1014.1 |
| 20260831172830 | 21 | 193 | 0.0 | 1.6 | 0.00 | 0.00 | 0.00 | 80 | 1014.0 |
| 20260831172814 | 21 | 175 | 0.0 | 1.6 | 0.00 | 0.00 | 0.00 | 80 | 1014.0 |
| 20260831172758 | 21 | 187 | 0.0 | 1.6 | 0.00 | 0.00 | 0.00 | 79 | 1013.8 |
| 20260831172743 | 21 | 193 | 0.0 | 1.6 | 0.00 | 0.00 | 0.00 | 79 | 1013.7 |
| 20260831172726 | 22 | 192 | 0.0 | 1.6 | 0.00 | 0.00 | 0.00 | 79 | 1013.8 |
| 20260831172459 | 22 | 198 | 0.0 | 1.6 | 0.00 | 0.00 | 0.00 | 79 | 1013.7 |
| 20260831172003 | 22 | 194 | 0.0 | 1.6 | 0.00 | 0.00 | 0.00 | 79 | 1013.8 |
| 20260831171948 | 22 | 192 | 0.0 | 1.6 | 0.00 | 0.00 | 0.00 | 79 | 1013.8 |
| 20260831171719 | 22 | 196 | 0.0 | 1.6 | 0.00 | 0.00 | 0.00 | 79 | 1013.6 |
| 20260831171620 | 22 | 192 | 0.0 | 1.6 | 0.00 | 0.00 | 0.00 | 79 | 1013.8 |
| 20260831171519 | 22 | 192 | 0.0 | 1.6 | 0.00 | 0.00 | 0.00 | 79 | 1013.8 |
| 20260831171419 | 22 | 192 | 0.0 | 1.6 | 0.00 | 0.00 | 0.00 | 78 | 1013.6 |
| 20260831171320 | 22 | 192 | 0.0 | 1.6 | 0.00 | 0.00 | 0.00 | 78 | 1014.0 |
| 20260831171220 | 22 | 192 | 0.0 | 1.6 | 0.00 | 0.00 | 0.00 | 78 | 1013.8 |
| 20260831171120 | 22 | 194 | 0.0 | 1.6 | 0.00 | 0.00 | 0.00 | 78 | 1013.8 |
| 20260831171107 | 22 | 198 | 0.0 | 1.6 | 0.00 | 0.00 | 0.00 | 77 | 1013.7 |
| 20260831171058 | 22 | 191 | 0.0 | 1.6 | 0.00 | 0.00 | 0.00 | 78 | 1013.7 |
| 20260831171042 | 22 | 192 | 0.0 | 1.6 | 0.00 | 0.00 | 0.00 | 77 | 1013.7 |
| 20260831171026 | 22 | 173 | 0.0 | 1.6 | 0.00 | 0.00 | 0.00 | 77 | 1013.9 |
| 20260831171007 | 22 | 198 | 0.0 | 1.6 | 0.00 | 0.00 | 0.00 | 77 | 1013.7 |
| 20260831170740 | 22 | 191 | 0.0 | 1.6 | 0.00 | 0.00 | 0.00 | 77 | 1013.7 |
| 20260831170432 | 22 | 194 | 0.0 | 1.6 | 0.00 | 0.00 | 0.00 | 77 | 1013.8 |
| 20260831170416 | 22 | 207 | 0.0 | 1.6 | 0.00 | 0.00 | 0.00 | 77 | 1013.7 |
| 20260831170353 | 22 | 198 | 0.0 | 1.6 | 0.00 | 0.00 | 0.00 | 77 | 1013.8 |
| 20260831170019 | 22 | 192 | 0.0 | 3.2 | 0.00 | 0.00 | 0.00 | 76 | 1013.6 |
| 20260831165919 | 22 | 187 | 0.0 | 3.2 | 0.00 | 0.00 | 0.00 | 76 | 1013.9 |
| 20260831165819 | 22 | 197 | 0.0 | 3.2 | 0.00 | 0.00 | 0.00 | 76 | 1013.7 |
| 20260831165719 | 22 | 197 | 0.0 | 3.2 | 0.00 | 0.00 | 0.00 | 76 | 1013.8 |
| 20260831165632 | 22 | 192 | 0.0 | 3.2 | 0.00 | 0.00 | 0.00 | 76 | 1013.9 |
| 20260831165616 | 22 | 160 | 0.0 | 3.2 | 0.00 | 0.00 | 0.00 | 76 | 1013.8 |
| 20260831165547 | 22 | 193 | 0.0 | 3.2 | 0.00 | 0.00 | 0.00 | 76 | 1013.9 |
| 20260831165311 | 23 | 194 | 0.0 | 0.0 | 0.00 | 0.00 | 0.00 | 75 | 1013.8 |
| 20260831165255 | 23 | 188 | 0.0 | 3.2 | 0.00 | 0.00 | 0.00 | 75 | 1013.6 |
| 20260831165239 | 23 | 198 | 0.0 | 1.6 | 0.00 | 0.00 | 0.00 | 75 | 1014.0 |
| 20260831165003 | 23 | 199 | 0.0 | 1.6 | 0.00 | 0.00 | 0.00 | 75 | 1013.6 |
| 20260831164948 | 23 | 192 | 0.0 | 1.6 | 0.00 | 0.00 | 0.00 | 76 | 1013.7 |
| 20260831164929 | 23 | 194 | 0.0 | 0.0 | 0.00 | 0.00 | 0.00 | 75 | 1013.8 |
| 20260831164209 | 24 | 199 | 0.0 | 4.8 | 0.00 | 0.00 | 0.00 | 74 | 1013.6 |
| 20260831164202 | 24 | 201 | 0.0 | 3.2 | 0.00 | 0.00 | 0.00 | 72 | 1013.7 |
| 20260831164157 | 24 | 195 | 0.0 | 3.2 | 0.00 | 0.00 | 0.00 | 73 | 1013.6 |
| 20260831164153 | 24 | 191 | 0.0 | 1.6 | 0.00 | 0.00 | 0.00 | 73 | 1013.7 |
| 20260831164146 | 23 | 194 | 0.0 | 3.2 | 0.00 | 0.00 | 0.00 | 76 | 1013.5 |
| 20260831164130 | 23 | 191 | 0.0 | 3.2 | 0.00 | 0.00 | 0.00 | 75 | 1013.7 |
| 20260831164114 | 23 | 194 | 0.0 | 3.2 | 0.00 | 0.00 | 0.00 | 75 | 1013.7 |
| 20260831163850 | 23 | 196 | 0.0 | 3.2 | 0.00 | 0.00 | 0.00 | 75 | 1013.6 |
| 20260831163835 | 23 | 199 | 0.0 | 3.2 | 0.00 | 0.00 | 0.00 | 75 | 1013.9 |
| 20260831163825 | 23 | 196 | 0.0 | 3.2 | 0.00 | 0.00 | 0.00 | 75 | 1013.9 |
| 20260831163809 | 23 | 196 | 0.0 | 3.2 | 0.00 | 0.00 | 0.00 | 75 | 1013.7 |
| 20260831163754 | 23 | 196 | 0.0 | 3.2 | 0.00 | 0.00 | 0.00 | 75 | 1013.6 |
| 20260831163738 | 23 | 201 | 0.0 | 3.2 | 0.00 | 0.00 | 0.00 | 75 | 1013.6 |
| 20260831163721 | 23 | 201 | 0.0 | 3.2 | 0.00 | 0.00 | 0.00 | 75 | 1013.7 |
| 20260831163449 | 23 | 228 | 3.2 | 3.2 | 0.00 | 0.00 | 0.00 | 75 | 1013.6 |
| 20260831163434 | 23 | 192 | 0.0 | 1.6 | 0.00 | 0.00 | 0.00 | 75 | 1013.7 |
| 20260831163158 | 23 | 177 | 0.0 | 1.6 | 0.00 | 0.00 | 0.00 | 75 | 1013.5 |
| 20260831163143 | 23 | 200 | 0.0 | 1.6 | 0.00 | 0.00 | 0.00 | 75 | 1013.8 |
| 20260831162915 | 23 | 194 | 0.0 | 1.6 | 0.00 | 0.00 | 0.00 | 75 | 1013.5 |
| 20260831162859 | 23 | 191 | 0.0 | 1.6 | 0.00 | 0.00 | 0.00 | 75 | 1013.6 |
| 20260831162842 | 23 | 131 | 0.0 | 1.6 | 0.00 | 0.00 | 0.00 | 75 | 1013.7 |
| 20260831162827 | 23 | 177 | 0.0 | 1.6 | 0.00 | 0.00 | 0.00 | 75 | 1013.7 |
| 20260831162551 | 23 | 191 | 0.0 | 3.2 | 0.00 | 0.00 | 0.00 | 75 | 1013.6 |
| 20260831162325 | 23 | 183 | 0.0 | 3.2 | 0.00 | 0.00 | 0.00 | 75 | 1013.6 |
| 20260831162308 | 23 | 199 | 0.0 | 3.2 | 0.00 | 0.00 | 0.00 | 76 | 1013.6 |
| 20260831162251 | 23 | 199 | 0.0 | 3.2 | 0.00 | 0.00 | 0.00 | 75 | 1013.6 |
| 20260831162235 | 23 | 200 | 0.0 | 3.2 | 0.00 | 0.00 | 0.00 | 76 | 1013.6 |
| 20260831161744 | 23 | 191 | 0.0 | 3.2 | 0.00 | 0.00 | 0.00 | 75 | 1013.6 |
| 20260831161727 | 23 | 196 | 0.0 | 3.2 | 0.00 | 0.00 | 0.00 | 75 | 1013.8 |
| 20260831161450 | 23 | 196 | 0.0 | 1.6 | 0.00 | 0.00 | 0.00 | 75 | 1013.6 |
| 20260831161425 | 23 | 200 | 0.0 | 1.6 | 0.00 | 0.00 | 0.00 | 75 | 1013.7 |
| 20260831161410 | 23 | 194 | 0.0 | 1.6 | 0.00 | 0.00 | 0.00 | 75 | 1013.5 |
| 20260831161353 | 23 | 200 | 0.0 | 1.6 | 0.00 | 0.00 | 0.00 | 75 | 1013.5 |
| 20260831161115 | 23 | 200 | 0.0 | 1.6 | 0.00 | 0.00 | 0.00 | 74 | 1013.6 |
| 20260831161059 | 23 | 195 | 0.0 | 1.6 | 0.00 | 0.00 | 0.00 | 74 | 1013.5 |
| 20260831160830 | 23 | 178 | 0.0 | 1.6 | 0.00 | 0.00 | 0.00 | 75 | 1013.7 |
| 20260831160813 | 23 | 199 | 0.0 | 1.6 | 0.00 | 0.00 | 0.00 | 75 | 1013.7 |
| 20260831160537 | 23 | 204 | 0.0 | 1.6 | 0.00 | 0.00 | 0.00 | 75 | 1013.6 |
| 20260831160311 | 24 | 199 | 0.0 | 1.6 | 0.00 | 0.00 | 0.00 | 75 | 1013.6 |
| 20260831160254 | 24 | 157 | 1.6 | 1.6 | 0.00 | 0.00 | 0.00 | 75 | 1013.6 |
| 20260831160238 | 24 | 191 | 0.0 | 1.6 | 0.00 | 0.00 | 0.00 | 74 | 1013.6 |
| 20260831160002 | 24 | 199 | 0.0 | 1.6 | 0.00 | 0.00 | 0.00 | 74 | 1013.7 |
| 20260831155731 | 24 | 201 | 0.0 | 4.8 | 0.00 | 0.00 | 0.00 | 74 | 1013.6 |
| 20260831155721 | 25 | 199 | 0.0 | 3.2 | 0.00 | 0.00 | 0.00 | 72 | 1013.5 |
| 20260831155717 | 24 | 198 | 0.0 | 3.2 | 0.00 | 0.00 | 0.00 | 73 | 1013.7 |
| 20260831155707 | 24 | 168 | 0.0 | 4.8 | 0.00 | 0.00 | 0.00 | 74 | 1013.6 |
| 20260831155650 | 24 | 194 | 0.0 | 4.8 | 0.00 | 0.00 | 0.00 | 73 | 1013.6 |
| 20260831155634 | 24 | 191 | 0.0 | 4.8 | 0.00 | 0.00 | 0.00 | 73 | 1013.7 |
| 20260831155619 | 24 | 213 | 0.0 | 4.8 | 0.00 | 0.00 | 0.00 | 73 | 1013.4 |
| 20260831155602 | 24 | 194 | 0.0 | 4.8 | 0.00 | 0.00 | 0.00 | 74 | 1013.8 |
| 20260831155556 | 24 | 194 | 0.0 | 4.8 | 0.00 | 0.00 | 0.00 | 73 | 1013.8 |
| 20260831155540 | 24 | 154 | 0.0 | 4.8 | 0.00 | 0.00 | 0.00 | 73 | 1013.5 |
| 20260831155524 | 24 | 192 | 0.0 | 4.8 | 0.00 | 0.00 | 0.00 | 73 | 1013.5 |
| 20260831155507 | 24 | 191 | 0.0 | 4.8 | 0.00 | 0.00 | 0.00 | 73 | 1013.7 |
| 20260831155220 | 24 | 190 | 0.0 | 3.2 | 0.00 | 0.00 | 0.00 | 73 | 1013.8 |
| 20260831155204 | 24 | 166 | 1.6 | 3.2 | 0.00 | 0.00 | 0.00 | 73 | 1013.7 |
| 20260831155148 | 24 | 190 | 0.0 | 3.2 | 0.00 | 0.00 | 0.00 | 72 | 1013.7 |
| 20260831155133 | 24 | 192 | 0.0 | 3.2 | 0.00 | 0.00 | 0.00 | 72 | 1013.6 |
| 20260831155118 | 24 | 197 | 0.0 | 3.2 | 0.00 | 0.00 | 0.00 | 72 | 1013.6 |
| 20260831155102 | 24 | 192 | 0.0 | 3.2 | 0.00 | 0.00 | 0.00 | 72 | 1013.6 |
| 20260831155055 | 24 | 197 | 0.0 | 3.2 | 0.00 | 0.00 | 0.00 | 72 | 1013.6 |
| 20260831155040 | 24 | 205 | 0.0 | 3.2 | 0.00 | 0.00 | 0.00 | 72 | 1013.8 |
| 20260831155023 | 24 | 198 | 0.0 | 3.2 | 0.00 | 0.00 | 0.00 | 72 | 1013.7 |
| 20260831155008 | 24 | 196 | 0.0 | 3.2 | 0.00 | 0.00 | 0.00 | 72 | 1013.6 |
| 20260831154952 | 24 | 202 | 0.0 | 3.2 | 0.00 | 0.00 | 0.00 | 72 | 1013.8 |
| 20260831154937 | 24 | 191 | 0.0 | 3.2 | 0.00 | 0.00 | 0.00 | 72 | 1013.6 |
| 20260831154928 | 24 | 187 | 0.0 | 3.2 | 0.00 | 0.00 | 0.00 | 72 | 1013.6 |
| 20260831154652 | 25 | 118 | 1.6 | 3.2 | 0.00 | 0.00 | 0.00 | 72 | 1013.6 |
| 20260831154635 | 25 | 187 | 0.0 | 1.6 | 0.00 | 0.00 | 0.00 | 72 | 1013.9 |
| 20260831154619 | 25 | 186 | 0.0 | 1.6 | 0.00 | 0.00 | 0.00 | 72 | 1013.7 |
| 20260831154603 | 25 | 192 | 0.0 | 1.6 | 0.00 | 0.00 | 0.00 | 72 | 1013.8 |
| 20260831154115 | 24 | 182 | 0.0 | 1.6 | 0.00 | 0.00 | 0.00 | 72 | 1013.9 |
| 20260831154059 | 24 | 201 | 0.0 | 1.6 | 0.00 | 0.00 | 0.00 | 72 | 1013.7 |
| 20260831154043 | 24 | 194 | 0.0 | 3.2 | 0.00 | 0.00 | 0.00 | 72 | 1014.0 |
| 20260831153814 | 24 | 193 | 0.0 | 3.2 | 0.00 | 0.00 | 0.00 | 72 | 1013.7 |
| 20260831153539 | 24 | 194 | 0.0 | 3.2 | 0.00 | 0.00 | 0.00 | 72 | 1013.8 |
| 20260831153523 | 24 | 198 | 0.0 | 3.2 | 0.00 | 0.00 | 0.00 | 73 | 1013.8 |
| 20260831153507 | 24 | 186 | 0.0 | 3.2 | 0.00 | 0.00 | 0.00 | 73 | 1013.6 |
| 20260831153018 | 24 | 196 | 0.0 | 3.2 | 0.00 | 0.00 | 0.00 | 73 | 1013.7 |
| 20260831153002 | 24 | 192 | 0.0 | 3.2 | 0.00 | 0.00 | 0.00 | 72 | 1013.7 |
| 20260831152947 | 24 | 182 | 0.0 | 3.2 | 0.00 | 0.00 | 0.00 | 72 | 1013.8 |
| 20260831152930 | 24 | 199 | 0.0 | 1.6 | 0.00 | 0.00 | 0.00 | 73 | 1013.7 |
| 20260831152443 | 24 | 191 | 0.0 | 1.6 | 0.00 | 0.00 | 0.00 | 73 | 1013.8 |
| 20260831152428 | 24 | 189 | 0.0 | 1.6 | 0.00 | 0.00 | 0.00 | 72 | 1013.7 |
| 20260831152412 | 24 | 202 | 0.0 | 1.6 | 0.00 | 0.00 | 0.00 | 72 | 1013.7 |
| 20260831152342 | 24 | 202 | 0.0 | 1.6 | 0.00 | 0.00 | 0.00 | 72 | 1013.7 |
| 20260831152113 | 24 | 195 | 0.0 | 0.0 | 0.00 | 0.00 | 0.00 | 71 | 1013.9 |
| 20260831152057 | 24 | 194 | 0.0 | 0.0 | 0.00 | 0.00 | 0.00 | 72 | 1013.7 |
| 20260831152040 | 24 | 191 | 0.0 | 1.6 | 0.00 | 0.00 | 0.00 | 71 | 1013.8 |
| 20260831151807 | 25 | 202 | 0.0 | 1.6 | 0.00 | 0.00 | 0.00 | 72 | 1013.8 |
| 20260831151315 | 25 | 198 | 0.0 | 1.6 | 0.00 | 0.00 | 0.00 | 71 | 1013.8 |
| 20260831151300 | 25 | 196 | 0.0 | 1.6 | 0.00 | 0.00 | 0.00 | 71 | 1013.6 |
| 20260831151245 | 25 | 196 | 0.0 | 1.6 | 0.00 | 0.00 | 0.00 | 72 | 1013.7 |
| 20260831151017 | 25 | 196 | 0.0 | 1.6 | 0.00 | 0.00 | 0.00 | 72 | 1013.7 |
| 20260831151000 | 25 | 196 | 0.0 | 1.6 | 0.00 | 0.00 | 0.00 | 72 | 1013.7 |
| 20260831150722 | 25 | 200 | 0.0 | 1.6 | 0.00 | 0.00 | 0.00 | 72 | 1013.8 |
| 20260831150705 | 25 | 198 | 0.0 | 3.2 | 0.00 | 0.00 | 0.00 | 72 | 1013.5 |
| 20260831150435 | 25 | 199 | 0.0 | 3.2 | 0.00 | 0.00 | 0.00 | 72 | 1013.7 |
| 20260831145937 | 24 | 195 | 0.0 | 3.2 | 0.00 | 0.00 | 0.00 | 73 | 1013.7 |
| 20260831145450 | 24 | 200 | 0.0 | 3.2 | 0.00 | 0.00 | 0.00 | 73 | 1013.7 |
| 20260831145433 | 24 | 197 | 0.0 | 3.2 | 0.00 | 0.00 | 0.00 | 73 | 1013.8 |
| 20260831145155 | 25 | 199 | 0.0 | 1.6 | 0.00 | 0.00 | 0.00 | 73 | 1013.5 |
| 20260831144922 | 25 | 195 | 0.0 | 1.6 | 0.00 | 0.00 | 0.00 | 73 | 1013.6 |
| 20260831144605 | 25 | 198 | 0.0 | 1.6 | 0.00 | 0.00 | 0.00 | 73 | 1013.5 |
| 20260831144552 | 25 | 196 | 0.0 | 1.6 | 0.00 | 0.00 | 0.00 | 73 | 1013.6 |
| 20260831144542 | 25 | 193 | 0.0 | 1.6 | 0.00 | 0.00 | 0.00 | 73 | 1013.7 |
| 20260831144526 | 25 | 194 | 0.0 | 1.6 | 0.00 | 0.00 | 0.00 | 73 | 1013.9 |
| 20260831144510 | 25 | 196 | 0.0 | 1.6 | 0.00 | 0.00 | 0.00 | 72 | 1013.6 |
| 20260831144243 | 25 | 197 | 0.0 | 1.6 | 0.00 | 0.00 | 0.00 | 73 | 1013.9 |
| 20260831144226 | 25 | 201 | 0.0 | 1.6 | 0.00 | 0.00 | 0.00 | 73 | 1013.6 |
| 20260831143906 | 25 | 170 | 0.0 | 1.6 | 0.00 | 0.00 | 0.00 | 74 | 1013.7 |
| 20260831143805 | 25 | 193 | 0.0 | 0.0 | 0.00 | 0.00 | 0.00 | 73 | 1013.8 |
| 20260831143739 | 25 | 193 | 0.0 | 0.0 | 0.00 | 0.00 | 0.00 | 73 | 1013.8 |
| 20260831143705 | 25 | 191 | 0.0 | 0.0 | 0.00 | 0.00 | 0.00 | 73 | 1013.7 |
| 20260831143605 | 24 | 196 | 0.0 | 1.6 | 0.00 | 0.00 | 0.00 | 73 | 1013.7 |
| 20260831143506 | 24 | 196 | 0.0 | 1.6 | 0.00 | 0.00 | 0.00 | 74 | 1013.7 |
| 20260831143406 | 24 | 199 | 0.0 | 1.6 | 0.00 | 0.00 | 0.00 | 74 | 1013.9 |
| 20260831143306 | 24 | 194 | 0.0 | 1.6 | 0.00 | 0.00 | 0.00 | 74 | 1013.6 |
| 20260831143237 | 24 | 192 | 0.0 | 1.6 | 0.00 | 0.00 | 0.00 | 74 | 1013.6 |
| 20260831143205 | 24 | 192 | 0.0 | 1.6 | 0.00 | 0.00 | 0.00 | 74 | 1013.9 |
| 20260831143106 | 24 | 191 | 0.0 | 1.6 | 0.00 | 0.00 | 0.00 | 75 | 1013.7 |
| 20260831143031 | 24 | 185 | 0.0 | 1.6 | 0.00 | 0.00 | 0.00 | 74 | 1013.7 |
| 20260831143017 | 24 | 199 | 0.0 | 1.6 | 0.00 | 0.00 | 0.00 | 75 | 1013.7 |
| 20260831142746 | 25 | 196 | 0.0 | 1.6 | 0.00 | 0.00 | 0.00 | 74 | 1013.6 |
| 20260831142740 | 24 | 199 | 0.0 | 1.6 | 0.00 | 0.00 | 0.00 | 75 | 1013.8 |
| 20260831142728 | 24 | 198 | 0.0 | 1.6 | 0.00 | 0.00 | 0.00 | 74 | 1013.6 |
| 20260831142711 | 25 | 196 | 0.0 | 1.6 | 0.00 | 0.00 | 0.00 | 75 | 1013.7 |
| 20260831142656 | 25 | 196 | 0.0 | 1.6 | 0.00 | 0.00 | 0.00 | 75 | 1013.8 |
| 20260831142639 | 25 | 197 | 0.0 | 1.6 | 0.00 | 0.00 | 0.00 | 74 | 1013.8 |
| 20260831142624 | 25 | 197 | 0.0 | 1.6 | 0.00 | 0.00 | 0.00 | 74 | 1013.6 |
| 20260831142054 | 25 | 202 | 0.0 | 4.8 | 0.00 | 0.00 | 0.00 | 73 | 1013.6 |
| 20260831141953 | 24 | 196 | 0.0 | 4.8 | 0.00 | 0.00 | 0.00 | 73 | 1013.8 |
| 20260831141853 | 24 | 198 | 0.0 | 4.8 | 0.00 | 0.00 | 0.00 | 73 | 1013.8 |
| 20260831141753 | 24 | 196 | 0.0 | 4.8 | 0.00 | 0.00 | 0.00 | 73 | 1013.7 |
| 20260831141737 | 24 | 203 | 0.0 | 4.8 | 0.00 | 0.00 | 0.00 | 73 | 1013.7 |
| 20260831141652 | 24 | 192 | 0.0 | 4.8 | 0.00 | 0.00 | 0.00 | 73 | 1013.8 |
| 20260831141635 | 24 | 191 | 0.0 | 4.8 | 0.00 | 0.00 | 0.00 | 74 | 1013.8 |
| 20260831141614 | 24 | 191 | 0.0 | 4.8 | 0.00 | 0.00 | 0.00 | 74 | 1013.6 |
| 20260831141254 | 24 | 203 | 1.6 | 4.8 | 0.00 | 0.00 | 0.00 | 74 | 1013.8 |
| 20260831141237 | 24 | 204 | 0.0 | 0.0 | 0.00 | 0.00 | 0.00 | 74 | 1013.8 |
| 20260831141225 | 24 | 197 | 0.0 | 0.0 | 0.00 | 0.00 | 0.00 | 74 | 1013.8 |
| 20260831141208 | 24 | 197 | 0.0 | 0.0 | 0.00 | 0.00 | 0.00 | 75 | 1013.7 |
| 20260831141152 | 24 | 218 | 0.0 | 1.6 | 0.00 | 0.00 | 0.00 | 74 | 1013.7 |
| 20260831141137 | 24 | 193 | 0.0 | 1.6 | 0.00 | 0.00 | 0.00 | 74 | 1013.7 |
| 20260831141108 | 24 | 199 | 0.0 | 1.6 | 0.00 | 0.00 | 0.00 | 73 | 1013.8 |
| 20260831140835 | 25 | 196 | 0.0 | 1.6 | 0.00 | 0.00 | 0.00 | 73 | 1013.8 |
| 20260831140255 | 25 | 197 | 0.0 | 1.6 | 0.00 | 0.00 | 0.00 | 73 | 1013.5 |
| 20260831140242 | 25 | 196 | 0.0 | 1.6 | 0.00 | 0.00 | 0.00 | 73 | 1013.5 |
| 20260831140232 | 25 | 188 | 0.0 | 1.6 | 0.00 | 0.00 | 0.00 | 73 | 1013.7 |
| 20260831140215 | 25 | 196 | 0.0 | 3.2 | 0.00 | 0.00 | 0.00 | 73 | 1013.8 |
| 20260831140159 | 25 | 204 | 0.0 | 3.2 | 0.00 | 0.00 | 0.00 | 73 | 1013.7 |
| 20260831140143 | 25 | 199 | 0.0 | 3.2 | 0.00 | 0.00 | 0.00 | 73 | 1013.7 |
| 20260831135910 | 25 | 206 | 0.0 | 3.2 | 0.00 | 0.00 | 0.00 | 72 | 1013.7 |
| 20260831135554 | 25 | 198 | 0.0 | 3.2 | 0.00 | 0.00 | 0.00 | 73 | 1013.6 |
| 20260831135452 | 25 | 200 | 0.0 | 3.2 | 0.00 | 0.00 | 0.00 | 73 | 1014.0 |
| 20260831135355 | 25 | 199 | 0.0 | 3.2 | 0.00 | 0.00 | 0.00 | 73 | 1013.9 |
| 20260831135306 | 25 | 115 | 0.0 | 3.2 | 0.00 | 0.00 | 0.00 | 73 | 1013.6 |
| 20260831135250 | 25 | 196 | 0.0 | 3.2 | 0.00 | 0.00 | 0.00 | 73 | 1013.6 |
| 20260831135154 | 25 | 193 | 0.0 | 3.2 | 0.00 | 0.00 | 0.00 | 72 | 1013.6 |
| 20260831135052 | 25 | 197 | 0.0 | 3.2 | 0.00 | 0.00 | 0.00 | 72 | 1013.7 |
| 20260831134955 | 25 | 192 | 0.0 | 3.2 | 0.00 | 0.00 | 0.00 | 72 | 1013.7 |
| 20260831134853 | 25 | 192 | 0.0 | 3.2 | 0.00 | 0.00 | 0.00 | 72 | 1013.7 |
| 20260831134825 | 25 | 190 | 0.0 | 3.2 | 0.00 | 0.00 | 0.00 | 72 | 1013.8 |
| 20260831134813 | 25 | 199 | 0.0 | 3.2 | 0.00 | 0.00 | 0.00 | 72 | 1013.8 |
| 20260831134453 | 25 | 196 | 0.0 | 3.2 | 0.00 | 0.00 | 0.00 | 72 | 1013.8 |
| 20260831134353 | 25 | 180 | 0.0 | 3.2 | 0.00 | 0.00 | 0.00 | 72 | 1013.8 |
| 20260831134254 | 25 | 200 | 0.0 | 3.2 | 0.00 | 0.00 | 0.00 | 72 | 1013.8 |
| 20260831134237 | 25 | 204 | 0.0 | 3.2 | 0.00 | 0.00 | 0.00 | 72 | 1013.8 |
| 20260831134154 | 25 | 171 | 3.2 | 3.2 | 0.00 | 0.00 | 0.00 | 72 | 1013.7 |
| 20260831134054 | 25 | 206 | 0.0 | 1.6 | 0.00 | 0.00 | 0.00 | 72 | 1013.7 |
| 20260831133953 | 25 | 202 | 0.0 | 1.6 | 0.00 | 0.00 | 0.00 | 72 | 1013.7 |
| 20260831133854 | 25 | 201 | 0.0 | 1.6 | 0.00 | 0.00 | 0.00 | 72 | 1013.9 |
| 20260831133753 | 25 | 187 | 0.0 | 1.6 | 0.00 | 0.00 | 0.00 | 73 | 1013.8 |
| 20260831133737 | 25 | 254 | 1.6 | 1.6 | 0.00 | 0.00 | 0.00 | 73 | 1013.8 |
| 20260831133653 | 25 | 196 | 0.0 | 1.6 | 0.00 | 0.00 | 0.00 | 71 | 1013.9 |
| 20260831133553 | 25 | 80 | 0.0 | 1.6 | 0.00 | 0.00 | 0.00 | 73 | 1013.5 |
| 20260831133453 | 25 | 207 | 0.0 | 1.6 | 0.00 | 0.00 | 0.00 | 73 | 1013.8 |
| 20260831133436 | 25 | 202 | 0.0 | 1.6 | 0.00 | 0.00 | 0.00 | 73 | 1013.8 |
| 20260831133420 | 25 | 201 | 0.0 | 1.6 | 0.00 | 0.00 | 0.00 | 74 | 1013.9 |
| 20260831133409 | 25 | 201 | 0.0 | 1.6 | 0.00 | 0.00 | 0.00 | 74 | 1013.9 |
| 20260831133053 | 25 | 208 | 0.0 | 1.6 | 0.00 | 0.00 | 0.00 | 74 | 1013.9 |
| 20260831132959 | 25 | 201 | 0.0 | 1.6 | 0.00 | 0.00 | 0.00 | 75 | 1013.9 |
| 20260831132854 | 24 | 203 | 0.0 | 1.6 | 0.00 | 0.00 | 0.00 | 76 | 1014.0 |
| 20260831132753 | 24 | 201 | 0.0 | 1.6 | 0.00 | 0.00 | 0.00 | 76 | 1013.9 |
| 20260831132737 | 24 | 201 | 0.0 | 1.6 | 0.00 | 0.00 | 0.00 | 75 | 1013.9 |
| 20260831132653 | 24 | 195 | 0.0 | 1.6 | 0.00 | 0.00 | 0.00 | 75 | 1014.0 |
| 20260831132626 | 24 | 199 | 0.0 | 1.6 | 0.00 | 0.00 | 0.00 | 76 | 1014.0 |
| 20260831132610 | 24 | 200 | 0.0 | 1.6 | 0.00 | 0.00 | 0.00 | 76 | 1014.0 |
| 20260831132554 | 24 | 191 | 0.0 | 1.6 | 0.00 | 0.00 | 0.00 | 76 | 1013.9 |
| 20260831132539 | 24 | 207 | 0.0 | 1.6 | 0.00 | 0.00 | 0.00 | 77 | 1014.0 |
| 20260831132528 | 24 | 193 | 0.0 | 3.2 | 0.00 | 0.00 | 0.00 | 77 | 1014.0 |
| 20260831131954 | 23 | 198 | 0.0 | 3.2 | 0.00 | 0.00 | 0.00 | 76 | 1013.9 |
| 20260831131854 | 23 | 195 | 0.0 | 3.2 | 0.00 | 0.00 | 0.00 | 76 | 1014.1 |
| 20260831131753 | 23 | 188 | 0.0 | 3.2 | 0.00 | 0.00 | 0.00 | 76 | 1014.1 |
| 20260831131737 | 23 | 181 | 1.6 | 3.2 | 0.00 | 0.00 | 0.00 | 76 | 1014.1 |
| 20260831131654 | 23 | 188 | 0.0 | 3.2 | 0.00 | 0.00 | 0.00 | 76 | 1014.0 |
| 20260831131553 | 23 | 202 | 0.0 | 3.2 | 0.00 | 0.00 | 0.00 | 76 | 1014.0 |
| 20260831131455 | 23 | 201 | 0.0 | 3.2 | 0.00 | 0.00 | 0.00 | 76 | 1013.9 |
| 20260831131354 | 23 | 147 | 0.0 | 3.2 | 0.00 | 0.00 | 0.00 | 75 | 1013.9 |
| 20260831131254 | 23 | 195 | 1.6 | 3.2 | 0.00 | 0.00 | 0.00 | 76 | 1014.0 |
| 20260831131237 | 23 | 203 | 0.0 | 3.2 | 0.00 | 0.00 | 0.00 | 76 | 1014.0 |
| 20260831131153 | 23 | 209 | 0.0 | 3.2 | 0.00 | 0.00 | 0.00 | 76 | 1014.0 |
| 20260831131053 | 23 | 201 | 0.0 | 3.2 | 0.00 | 0.00 | 0.00 | 77 | 1014.1 |
| 20260831130953 | 23 | 193 | 0.0 | 3.2 | 0.00 | 0.00 | 0.00 | 77 | 1013.9 |
| 20260831130854 | 23 | 89 | 1.6 | 3.2 | 0.00 | 0.00 | 0.00 | 77 | 1014.0 |
| 20260831130831 | 23 | 201 | 0.0 | 3.2 | 0.00 | 0.00 | 0.00 | 76 | 1014.0 |
| 20260831130820 | 23 | 201 | 0.0 | 3.2 | 0.00 | 0.00 | 0.00 | 77 | 1014.0 |
| 20260831130807 | 23 | 205 | 1.6 | 1.6 | 0.00 | 0.00 | 0.00 | 77 | 1014.0 |
| 20260831130751 | 23 | 198 | 0.0 | 1.6 | 0.00 | 0.00 | 0.00 | 76 | 1014.0 |
| 20260831130734 | 23 | 199 | 0.0 | 1.6 | 0.00 | 0.00 | 0.00 | 76 | 1013.8 |
| 20260831130240 | 23 | 189 | 0.0 | 1.6 | 0.00 | 0.00 | 0.00 | 75 | 1014.0 |
| 20260831130230 | 23 | 195 | 0.0 | 1.6 | 0.00 | 0.00 | 0.00 | 75 | 1013.9 |
| 20260831130214 | 23 | 154 | 0.0 | 1.6 | 0.00 | 0.00 | 0.00 | 75 | 1014.0 |
| 20260831130158 | 23 | 195 | 0.0 | 1.6 | 0.00 | 0.00 | 0.00 | 74 | 1014.2 |
| 20260831125922 | 23 | 195 | 0.0 | 1.6 | 0.00 | 0.00 | 0.00 | 74 | 1013.9 |
| 20260831125910 | 23 | 198 | 0.0 | 1.6 | 0.00 | 0.00 | 0.00 | 74 | 1013.9 |
| 20260831125624 | 23 | 200 | 0.0 | 3.2 | 0.00 | 0.00 | 0.00 | 74 | 1014.2 |
| 20260831125608 | 23 | 202 | 0.0 | 3.2 | 0.00 | 0.00 | 0.00 | 74 | 1014.0 |
| 20260831125551 | 23 | 198 | 0.0 | 3.2 | 0.00 | 0.00 | 0.00 | 74 | 1014.0 |
| 20260831125536 | 23 | 198 | 0.0 | 3.2 | 0.00 | 0.00 | 0.00 | 73 | 1014.0 |
| 20260831125523 | 23 | 200 | 0.0 | 3.2 | 0.00 | 0.00 | 0.00 | 73 | 1014.0 |
| 20260831125513 | 23 | 201 | 0.0 | 3.2 | 0.00 | 0.00 | 0.00 | 73 | 1014.0 |
| 20260831125456 | 23 | 159 | 0.0 | 3.2 | 0.00 | 0.00 | 0.00 | 73 | 1014.0 |
| 20260831124948 | 23 | 205 | 0.0 | 4.8 | 0.00 | 0.00 | 0.00 | 72 | 1014.0 |
| 20260831124714 | 24 | 181 | 1.6 | 4.8 | 0.00 | 0.00 | 0.00 | 72 | 1013.8 |
| 20260831124354 | 24 | 197 | 0.0 | 4.8 | 0.00 | 0.00 | 0.00 | 73 | 1013.9 |
| 20260831124253 | 24 | 198 | 0.0 | 4.8 | 0.00 | 0.00 | 0.00 | 73 | 1014.0 |
| 20260831124241 | 24 | 194 | 0.0 | 4.8 | 0.00 | 0.00 | 0.00 | 73 | 1014.0 |
| 20260831124231 | 24 | 199 | 0.0 | 4.8 | 0.00 | 0.00 | 0.00 | 72 | 1014.0 |
| 20260831124215 | 24 | 196 | 1.6 | 4.8 | 0.00 | 0.00 | 0.00 | 72 | 1013.9 |
| 20260831123853 | 24 | 209 | 3.2 | 4.8 | 0.00 | 0.00 | 0.00 | 72 | 1013.9 |
| 20260831123754 | 24 | 194 | 0.0 | 3.2 | 0.00 | 0.00 | 0.00 | 72 | 1013.8 |
| 20260831123738 | 24 | 195 | 0.0 | 3.2 | 0.00 | 0.00 | 0.00 | 72 | 1013.8 |
| 20260831123653 | 24 | 197 | 0.0 | 3.2 | 0.00 | 0.00 | 0.00 | 72 | 1013.9 |
| 20260831123553 | 24 | 197 | 0.0 | 3.2 | 0.00 | 0.00 | 0.00 | 72 | 1013.8 |
| 20260831123454 | 24 | 251 | 0.0 | 3.2 | 0.00 | 0.00 | 0.00 | 73 | 1013.8 |
| 20260831123437 | 24 | 200 | 0.0 | 3.2 | 0.00 | 0.00 | 0.00 | 72 | 1013.9 |
| 20260831123420 | 24 | 196 | 0.0 | 3.2 | 0.00 | 0.00 | 0.00 | 72 | 1013.9 |
| 20260831123408 | 24 | 196 | 0.0 | 3.2 | 0.00 | 0.00 | 0.00 | 72 | 1013.9 |
| 20260831123054 | 24 | 198 | 0.0 | 3.2 | 0.00 | 0.00 | 0.00 | 72 | 1013.8 |
| 20260831122952 | 24 | 103 | 0.0 | 3.2 | 0.00 | 0.00 | 0.00 | 72 | 1014.2 |
| 20260831122854 | 25 | 260 | 3.2 | 3.2 | 0.00 | 0.00 | 0.00 | 72 | 1014.0 |
| 20260831122738 | 25 | 192 | 0.0 | 1.6 | 0.00 | 0.00 | 0.00 | 72 | 1013.9 |
| 20260831122653 | 25 | 202 | 0.0 | 1.6 | 0.00 | 0.00 | 0.00 | 72 | 1014.1 |
| 20260831122554 | 25 | 204 | 0.0 | 1.6 | 0.00 | 0.00 | 0.00 | 72 | 1014.0 |
| 20260831122454 | 25 | 185 | 0.0 | 1.6 | 0.00 | 0.00 | 0.00 | 72 | 1013.9 |
| 20260831122353 | 25 | 197 | 0.0 | 1.6 | 0.00 | 0.00 | 0.00 | 71 | 1014.0 |
| 20260831122253 | 25 | 198 | 0.0 | 1.6 | 0.00 | 0.00 | 0.00 | 71 | 1014.1 |
| 20260831122238 | 25 | 198 | 0.0 | 1.6 | 0.00 | 0.00 | 0.00 | 71 | 1014.1 |
| 20260831122155 | 25 | 199 | 0.0 | 1.6 | 0.00 | 0.00 | 0.00 | 71 | 1013.9 |
| 20260831122053 | 25 | 196 | 0.0 | 1.6 | 0.00 | 0.00 | 0.00 | 71 | 1013.9 |
| 20260831121954 | 25 | 197 | 0.0 | 1.6 | 0.00 | 0.00 | 0.00 | 71 | 1013.8 |
| 20260831121852 | 25 | 198 | 0.0 | 1.6 | 0.00 | 0.00 | 0.00 | 71 | 1013.9 |
| 20260831121753 | 25 | 196 | 0.0 | 1.6 | 0.00 | 0.00 | 0.00 | 71 | 1013.6 |
| 20260831121738 | 25 | 198 | 0.0 | 1.6 | 0.00 | 0.00 | 0.00 | 71 | 1013.6 |
| 20260831121653 | 25 | 200 | 0.0 | 1.6 | 0.00 | 0.00 | 0.00 | 71 | 1013.9 |
| 20260831121627 | 24 | 209 | 1.6 | 1.6 | 0.00 | 0.00 | 0.00 | 71 | 1013.7 |
| 20260831121619 | 24 | 166 | 0.0 | 1.6 | 0.00 | 0.00 | 0.00 | 71 | 1013.8 |
| 20260831121604 | 24 | 196 | 0.0 | 1.6 | 0.00 | 0.00 | 0.00 | 71 | 1013.9 |
| 20260831121548 | 24 | 198 | 0.0 | 1.6 | 0.00 | 0.00 | 0.00 | 71 | 1013.9 |
| 20260831121531 | 24 | 196 | 0.0 | 1.6 | 0.00 | 0.00 | 0.00 | 71 | 1013.7 |
| 20260831121306 | 24 | 199 | 1.6 | 1.6 | 0.00 | 0.00 | 0.00 | 72 | 1013.8 |
| 20260831121250 | 24 | 196 | 0.0 | 1.6 | 0.00 | 0.00 | 0.00 | 73 | 1014.0 |
| 20260831121015 | 24 | 202 | 0.0 | 1.6 | 0.00 | 0.00 | 0.00 | 72 | 1013.7 |
| 20260831120959 | 24 | 201 | 0.0 | 1.6 | 0.00 | 0.00 | 0.00 | 73 | 1014.0 |
| 20260831120943 | 24 | 201 | 0.0 | 1.6 | 0.00 | 0.00 | 0.00 | 73 | 1014.0 |
| 20260831120934 | 24 | 197 | 0.0 | 1.6 | 0.00 | 0.00 | 0.00 | 74 | 1013.9 |
| 20260831120353 | 24 | 201 | 0.0 | 1.6 | 0.00 | 0.00 | 0.00 | 76 | 1013.9 |
| 20260831120225 | 24 | 202 | 0.0 | 1.6 | 0.00 | 0.00 | 0.00 | 76 | 1014.0 |
| 20260831120154 | 23 | 203 | 0.0 | 1.6 | 0.00 | 0.00 | 0.00 | 76 | 1014.0 |
| 20260831120130 | 23 | 203 | 0.0 | 1.6 | 0.00 | 0.00 | 0.00 | 76 | 1013.9 |
| 20260831120114 | 23 | 206 | 0.0 | 1.6 | 0.00 | 0.00 | 0.00 | 76 | 1013.9 |
| 20260831120058 | 23 | 199 | 0.0 | 1.6 | 0.00 | 0.00 | 0.00 | 77 | 1013.8 |
| 20260831120042 | 23 | 199 | 0.0 | 1.6 | 0.00 | 0.00 | 0.00 | 76 | 1014.0 |
| 20260831120027 | 23 | 203 | 0.0 | 1.6 | 0.00 | 0.00 | 0.00 | 76 | 1014.0 |
| 20260831115454 | 23 | 199 | 0.0 | 1.6 | 0.00 | 0.00 | 0.00 | 75 | 1013.7 |
| 20260831115353 | 23 | 199 | 0.0 | 1.6 | 0.00 | 0.00 | 0.00 | 75 | 1013.8 |
| 20260831115253 | 23 | 202 | 0.0 | 1.6 | 0.00 | 0.00 | 0.00 | 75 | 1013.8 |
| 20260831115225 | 23 | 202 | 0.0 | 1.6 | 0.00 | 0.00 | 0.00 | 75 | 1013.8 |
| 20260831115155 | 23 | 202 | 0.0 | 1.6 | 0.00 | 0.00 | 0.00 | 75 | 1013.8 |
| 20260831115055 | 23 | 200 | 0.0 | 0.0 | 0.00 | 0.00 | 0.00 | 75 | 1013.8 |
| 20260831114958 | 23 | 200 | 0.0 | 0.0 | 0.00 | 0.00 | 0.00 | 75 | 1014.1 |
| 20260831114942 | 23 | 201 | 0.0 | 0.0 | 0.00 | 0.00 | 0.00 | 76 | 1013.7 |
| 20260831114926 | 23 | 201 | 0.0 | 0.0 | 0.00 | 0.00 | 0.00 | 77 | 1013.9 |
| 20260831114910 | 23 | 201 | 0.0 | 0.0 | 0.00 | 0.00 | 0.00 | 77 | 1013.9 |
| 20260831114645 | 23 | 199 | 0.0 | 1.6 | 0.00 | 0.00 | 0.00 | 79 | 1013.8 |
| 20260831114453 | 23 | 200 | 0.0 | 1.6 | 0.00 | 0.00 | 0.00 | 78 | 1013.7 |
| 20260831114353 | 23 | 200 | 0.0 | 1.6 | 0.00 | 0.00 | 0.00 | 79 | 1013.8 |
| 20260831114255 | 23 | 200 | 0.0 | 1.6 | 0.00 | 0.00 | 0.00 | 80 | 1013.8 |
| 20260831114225 | 23 | 200 | 0.0 | 1.6 | 0.00 | 0.00 | 0.00 | 80 | 1013.8 |
| 20260831114154 | 23 | 200 | 0.0 | 1.6 | 0.00 | 0.00 | 0.00 | 80 | 1013.6 |
| 20260831114133 | 22 | 198 | 0.0 | 1.6 | 0.00 | 0.00 | 0.00 | 82 | 1013.7 |
| 20260831114129 | 22 | 194 | 0.0 | 1.6 | 0.00 | 0.00 | 0.00 | 84 | 1013.7 |
| 20260831114121 | 23 | 202 | 0.0 | 1.6 | 0.00 | 0.00 | 0.00 | 80 | 1013.8 |
| 20260831114105 | 23 | 202 | 0.0 | 1.6 | 0.00 | 0.00 | 0.00 | 80 | 1013.8 |
| 20260831114050 | 23 | 202 | 0.0 | 1.6 | 0.00 | 0.00 | 0.00 | 79 | 1013.8 |
| 20260831114034 | 23 | 202 | 0.0 | 1.6 | 0.00 | 0.00 | 0.00 | 80 | 1013.7 |
| 20260831114019 | 22 | 202 | 0.0 | 1.6 | 0.00 | 0.00 | 0.00 | 80 | 1013.7 |
| 20260831114010 | 22 | 202 | 0.0 | 1.6 | 0.00 | 0.00 | 0.00 | 80 | 1013.5 |
| 20260831113953 | 22 | 199 | 0.0 | 1.6 | 0.00 | 0.00 | 0.00 | 81 | 1013.7 |
| 20260831113717 | 22 | 201 | 0.0 | 1.6 | 0.00 | 0.00 | 0.00 | 81 | 1013.8 |
| 20260831113702 | 22 | 199 | 0.0 | 1.6 | 0.00 | 0.00 | 0.00 | 82 | 1013.7 |
| 20260831113434 | 22 | 196 | 0.0 | 1.6 | 0.00 | 0.00 | 0.00 | 82 | 1013.5 |
| 20260831113158 | 22 | 202 | 0.0 | 1.6 | 0.00 | 0.00 | 0.00 | 83 | 1013.6 |
| 20260831113143 | 22 | 199 | 1.6 | 1.6 | 0.00 | 0.00 | 0.00 | 84 | 1013.6 |
| 20260831113127 | 22 | 195 | 0.0 | 1.6 | 0.00 | 0.00 | 0.00 | 84 | 1013.7 |